Wetterdaten: Sonntag, 15.12.2013
Datum Zeit Temp. Aussen +5cm Feuchte Auss Luftdruck Regen Sonnenschein Regendauer UV Solar Windben
15.12.2013 00:00 3,5 C 2,2 C 92 % 1027,0 hPa 0,0 l/m 0 min 0 min 0,0 UV-I 0 W/m 23,2 km/h (4 Bft)
15.12.2013 00:02 3,6 C 2,2 C 92 % 1027,0 hPa 0,0 l/m 0 min 0 min 0,0 UV-I 0 W/m 15,4 km/h (3 Bft)
15.12.2013 00:06 3,6 C 2,2 C 92 % 1027,0 hPa 0,0 l/m 0 min 0 min 0,0 UV-I 0 W/m 18,0 km/h (3 Bft)
15.12.2013 00:08 3,6 C 2,2 C 92 % 1027,0 hPa 0,0 l/m 0 min 0 min 0,0 UV-I 0 W/m 18,0 km/h (3 Bft)
15.12.2013 00:10 3,6 C 2,2 C 92 % 1026,9 hPa 0,0 l/m 0 min 0 min 0,0 UV-I 0 W/m 18,0 km/h (3 Bft)
15.12.2013 00:12 3,6 C 2,2 C 92 % 1026,8 hPa 0,0 l/m 0 min 0 min 0,0 UV-I 0 W/m 15,4 km/h (3 Bft)
15.12.2013 00:14 3,6 C 2,2 C 93 % 1026,7 hPa 0,0 l/m 0 min 0 min 0,0 UV-I 0 W/m 10,3 km/h (2 Bft)
15.12.2013 00:16 3,6 C 2,2 C 93 % 1026,7 hPa 0,0 l/m 0 min 0 min 0,0 UV-I 0 W/m 18,0 km/h (3 Bft)
15.12.2013 00:18 3,6 C 2,2 C 93 % 1026,6 hPa 0,0 l/m 0 min 0 min 0,0 UV-I 0 W/m 18,0 km/h (3 Bft)
15.12.2013 00:20 3,6 C 2,2 C 92 % 1026,6 hPa 0,0 l/m 0 min 0 min 0,0 UV-I 0 W/m 23,2 km/h (4 Bft)
15.12.2013 00:22 3,6 C 2,2 C 92 % 1026,5 hPa 0,0 l/m 0 min 0 min 0,0 UV-I 0 W/m 23,2 km/h (4 Bft)
15.12.2013 00:24 3,7 C 2,2 C 92 % 1026,5 hPa 0,0 l/m 0 min 0 min 0,0 UV-I 0 W/m 18,0 km/h (3 Bft)
15.12.2013 00:26 3,7 C 2,2 C 92 % 1026,4 hPa 0,0 l/m 0 min 0 min 0,0 UV-I 0 W/m 23,2 km/h (4 Bft)
15.12.2013 00:28 3,7 C 2,2 C 93 % 1026,5 hPa 0,0 l/m 0 min 0 min 0,0 UV-I 0 W/m 28,3 km/h (4 Bft)
15.12.2013 00:30 3,7 C 2,8 C 93 % 1026,5 hPa 0,0 l/m 0 min 0 min 0,0 UV-I 0 W/m 23,2 km/h (4 Bft)
15.12.2013 00:32 3,7 C 2,8 C 93 % 1026,4 hPa 0,0 l/m 0 min 0 min 0,0 UV-I 0 W/m 18,0 km/h (3 Bft)
15.12.2013 00:34 3,8 C 2,8 C 93 % 1026,4 hPa 0,0 l/m 0 min 0 min 0,0 UV-I 0 W/m 20,6 km/h (4 Bft)
15.12.2013 00:36 3,8 C 2,8 C 93 % 1026,3 hPa 0,0 l/m 0 min 0 min 0,0 UV-I 0 W/m 23,2 km/h (4 Bft)
15.12.2013 00:38 3,9 C 2,8 C 93 % 1026,3 hPa 0,0 l/m 0 min 0 min 0,0 UV-I 0 W/m 23,2 km/h (4 Bft)
15.12.2013 00:40 3,9 C 2,8 C 93 % 1026,2 hPa 0,0 l/m 0 min 0 min 0,0 UV-I 0 W/m 15,4 km/h (3 Bft)
15.12.2013 00:42 4,0 C 2,8 C 93 % 1026,2 hPa 0,0 l/m 0 min 0 min 0,0 UV-I 0 W/m 23,2 km/h (4 Bft)
15.12.2013 00:44 4,0 C 2,8 C 92 % 1026,2 hPa 0,0 l/m 0 min 0 min 0,0 UV-I 0 W/m 15,4 km/h (3 Bft)
15.12.2013 00:46 4,1 C 2,8 C 92 % 1026,4 hPa 0,0 l/m 0 min 0 min 0,0 UV-I 0 W/m 18,0 km/h (3 Bft)
15.12.2013 00:48 4,1 C 3,3 C 93 % 1026,3 hPa 0,0 l/m 0 min 0 min 0,0 UV-I 0 W/m 12,9 km/h (3 Bft)
15.12.2013 00:50 4,2 C 3,3 C 93 % 1026,2 hPa 0,0 l/m 0 min 0 min 0,0 UV-I 0 W/m 20,6 km/h (4 Bft)
15.12.2013 00:52 4,2 C 3,3 C 92 % 1026,2 hPa 0,0 l/m 0 min 0 min 0,0 UV-I 0 W/m 18,0 km/h (3 Bft)
15.12.2013 00:54 4,2 C 3,3 C 92 % 1025,9 hPa 0,0 l/m 0 min 0 min 0,0 UV-I 0 W/m 15,4 km/h (3 Bft)
15.12.2013 00:56 4,3 C 3,3 C 92 % 1025,8 hPa 0,0 l/m 0 min 0 min 0,0 UV-I 0 W/m 15,4 km/h (3 Bft)
15.12.2013 00:58 4,3 C 3,3 C 92 % 1025,8 hPa 0,0 l/m 0 min 0 min 0,0 UV-I 0 W/m 15,4 km/h (3 Bft)
15.12.2013 01:00 4,4 C 3,3 C 93 % 1025,7 hPa 0,0 l/m 0 min 0 min 0,0 UV-I 0 W/m 23,2 km/h (4 Bft)
15.12.2013 01:02 4,4 C 3,3 C 93 % 1025,8 hPa 0,0 l/m 0 min 0 min 0,0 UV-I 0 W/m 20,6 km/h (4 Bft)
15.12.2013 01:04 4,5 C 3,3 C 92 % 1025,6 hPa 0,0 l/m 0 min 0 min 0,0 UV-I 0 W/m 28,3 km/h (4 Bft)
15.12.2013 01:06 4,5 C 3,3 C 92 % 1025,6 hPa 0,0 l/m 0 min 0 min 0,0 UV-I 0 W/m 18,0 km/h (3 Bft)
15.12.2013 01:08 4,6 C 3,3 C 92 % 1025,6 hPa 0,0 l/m 0 min 0 min 0,0 UV-I 0 W/m 12,9 km/h (3 Bft)
15.12.2013 01:10 4,6 C 3,3 C 92 % 1025,6 hPa 0,0 l/m 0 min 0 min 0,0 UV-I 0 W/m 15,4 km/h (3 Bft)
15.12.2013 01:12 4,6 C 3,3 C 92 % 1025,7 hPa 0,0 l/m 0 min 0 min 0,0 UV-I 0 W/m 0,0 km/h (0 Bft)
15.12.2013 01:14 4,6 C 3,3 C 92 % 1025,6 hPa 0,0 l/m 0 min 0 min 0,0 UV-I 0 W/m 15,4 km/h (3 Bft)
15.12.2013 01:16 4,6 C 3,3 C 92 % 1025,3 hPa 0,0 l/m 0 min 0 min 0,0 UV-I 0 W/m 18,0 km/h (3 Bft)
15.12.2013 01:18 4,6 C 3,3 C 92 % 1025,4 hPa 0,0 l/m 0 min 0 min 0,0 UV-I 0 W/m 20,6 km/h (4 Bft)
15.12.2013 01:20 4,7 C 3,3 C 92 % 1025,3 hPa 0,0 l/m 0 min 0 min 0,0 UV-I 0 W/m 15,4 km/h (3 Bft)
15.12.2013 01:22 4,7 C 3,3 C 92 % 1025,4 hPa 0,0 l/m 0 min 0 min 0,0 UV-I 0 W/m 25,7 km/h (4 Bft)
15.12.2013 01:24 4,7 C 3,3 C 92 % 1025,5 hPa 0,0 l/m 0 min 0 min 0,0 UV-I 0 W/m 15,4 km/h (3 Bft)
15.12.2013 01:26 4,7 C 3,3 C 92 % 1025,5 hPa 0,0 l/m 0 min 0 min 0,0 UV-I 0 W/m 12,9 km/h (3 Bft)
15.12.2013 01:28 4,7 C 3,3 C 92 % 1025,6 hPa 0,0 l/m 0 min 0 min 0,0 UV-I 0 W/m 15,4 km/h (3 Bft)
15.12.2013 01:30 4,7 C 3,3 C 92 % 1025,5 hPa 0,0 l/m 0 min 0 min 0,0 UV-I 0 W/m 25,7 km/h (4 Bft)
15.12.2013 01:32 4,7 C 3,3 C 92 % 1025,3 hPa 0,0 l/m 0 min 0 min 0,0 UV-I 0 W/m 28,3 km/h (4 Bft)
15.12.2013 01:34 4,7 C 3,3 C 92 % 1025,1 hPa 0,0 l/m 0 min 0 min 0,0 UV-I 0 W/m 18,0 km/h (3 Bft)
15.12.2013 01:36 4,7 C 3,3 C 92 % 1025,0 hPa 0,0 l/m 0 min 0 min 0,0 UV-I 0 W/m 20,6 km/h (4 Bft)
15.12.2013 01:38 4,7 C 3,3 C 92 % 1025,0 hPa 0,0 l/m 0 min 0 min 0,0 UV-I 0 W/m 23,2 km/h (4 Bft)
15.12.2013 01:40 4,7 C 3,3 C 92 % 1025,0 hPa 0,0 l/m 0 min 0 min 0,0 UV-I 0 W/m 15,4 km/h (3 Bft)
15.12.2013 01:42 4,7 C 3,3 C 92 % 1025,1 hPa 0,0 l/m 0 min 0 min 0,0 UV-I 0 W/m 20,6 km/h (4 Bft)
15.12.2013 01:44 4,7 C 3,3 C 92 % 1025,0 hPa 0,0 l/m 0 min 0 min 0,0 UV-I 0 W/m 18,0 km/h (3 Bft)
15.12.2013 01:46 4,7 C 3,3 C 92 % 1024,9 hPa 0,0 l/m 0 min 0 min 0,0 UV-I 0 W/m 18,0 km/h (3 Bft)
15.12.2013 01:48 4,7 C 3,3 C 92 % 1025,0 hPa 0,0 l/m 0 min 0 min 0,0 UV-I 0 W/m 15,4 km/h (3 Bft)
15.12.2013 01:50 4,7 C 3,3 C 92 % 1025,4 hPa 0,0 l/m 0 min 0 min 0,0 UV-I 0 W/m 0,0 km/h (0 Bft)
15.12.2013 01:52 4,7 C 3,3 C 92 % 1025,8 hPa 0,0 l/m 0 min 0 min 0,0 UV-I 0 W/m 0,0 km/h (0 Bft)
15.12.2013 01:54 4,7 C 3,3 C 92 % 1026,0 hPa 0,0 l/m 0 min 0 min 0,0 UV-I 0 W/m 0,0 km/h (0 Bft)
15.12.2013 01:56 4,7 C 3,3 C 92 % 1025,7 hPa 0,0 l/m 0 min 0 min 0,0 UV-I 0 W/m 0,0 km/h (0 Bft)
15.12.2013 01:58 4,7 C 3,3 C 92 % 1025,9 hPa 0,0 l/m 0 min 0 min 0,0 UV-I 0 W/m 0,0 km/h (0 Bft)
15.12.2013 02:00 4,7 C 3,3 C 92 % 1025,9 hPa 0,0 l/m 0 min 0 min 0,0 UV-I 0 W/m 0,0 km/h (0 Bft)
15.12.2013 02:02 4,7 C 3,3 C 92 % 1025,9 hPa 0,0 l/m 0 min 0 min 0,0 UV-I 0 W/m 0,0 km/h (0 Bft)
15.12.2013 02:04 4,7 C 3,3 C 92 % 1025,8 hPa 0,0 l/m 0 min 0 min 0,0 UV-I 0 W/m 0,0 km/h (0 Bft)
15.12.2013 02:06 4,7 C 3,3 C 92 % 1025,7 hPa 0,0 l/m 0 min 0 min 0,0 UV-I 0 W/m 0,0 km/h (0 Bft)
15.12.2013 02:08 4,7 C 3,3 C 92 % 1025,7 hPa 0,0 l/m 0 min 0 min 0,0 UV-I 0 W/m 0,0 km/h (0 Bft)
15.12.2013 02:10 4,7 C 3,3 C 92 % 1025,9 hPa 0,0 l/m 0 min 0 min 0,0 UV-I 0 W/m 0,0 km/h (0 Bft)
15.12.2013 02:12 4,7 C 3,3 C 92 % 1025,8 hPa 0,0 l/m 0 min 0 min 0,0 UV-I 0 W/m 0,0 km/h (0 Bft)
15.12.2013 02:14 4,7 C 3,3 C 92 % 1025,9 hPa 0,0 l/m 0 min 0 min 0,0 UV-I 0 W/m 0,0 km/h (0 Bft)
15.12.2013 02:16 4,7 C 3,3 C 92 % 1025,8 hPa 0,0 l/m 0 min 0 min 0,0 UV-I 0 W/m 0,0 km/h (0 Bft)
15.12.2013 02:18 4,7 C 3,3 C 92 % 1025,7 hPa 0,0 l/m 0 min 0 min 0,0 UV-I 0 W/m 0,0 km/h (0 Bft)
15.12.2013 02:20 4,7 C 3,3 C 92 % 1025,7 hPa 0,0 l/m 0 min 0 min 0,0 UV-I 0 W/m 0,0 km/h (0 Bft)
15.12.2013 02:22 4,7 C 3,3 C 92 % 1025,7 hPa 0,0 l/m 0 min 0 min 0,0 UV-I 0 W/m 0,0 km/h (0 Bft)
15.12.2013 02:24 4,7 C 3,3 C 92 % 1025,7 hPa 0,0 l/m 0 min 0 min 0,0 UV-I 0 W/m 2,6 km/h (1 Bft)
15.12.2013 02:26 4,8 C 3,3 C 92 % 1025,7 hPa 0,0 l/m 0 min 0 min 0,0 UV-I 0 W/m 5,1 km/h (1 Bft)
15.12.2013 02:28 4,8 C 3,3 C 92 % 1025,7 hPa 0,0 l/m 0 min 0 min 0,0 UV-I 0 W/m 5,1 km/h (1 Bft)
15.12.2013 02:30 4,8 C 3,3 C 92 % 1025,6 hPa 0,0 l/m 0 min 0 min 0,0 UV-I 0 W/m 0,0 km/h (0 Bft)
15.12.2013 02:32 4,8 C 3,3 C 92 % 1025,6 hPa 0,0 l/m 0 min 0 min 0,0 UV-I 0 W/m 5,1 km/h (1 Bft)
15.12.2013 02:34 4,8 C 3,3 C 92 % 1025,6 hPa 0,0 l/m 0 min 0 min 0,0 UV-I 0 W/m 0,0 km/h (0 Bft)
15.12.2013 02:36 4,8 C 3,3 C 92 % 1025,6 hPa 0,0 l/m 0 min 0 min 0,0 UV-I 0 W/m 0,0 km/h (0 Bft)
15.12.2013 02:38 4,8 C 3,3 C 92 % 1025,6 hPa 0,0 l/m 0 min 0 min 0,0 UV-I 0 W/m 0,0 km/h (0 Bft)
15.12.2013 02:40 4,8 C 3,3 C 92 % 1025,6 hPa 0,0 l/m 0 min 0 min 0,0 UV-I 0 W/m 5,1 km/h (1 Bft)
15.12.2013 02:42 4,8 C 3,3 C 92 % 1025,7 hPa 0,0 l/m 0 min 0 min 0,0 UV-I 0 W/m 0,0 km/h (0 Bft)
15.12.2013 02:44 4,8 C 3,3 C 92 % 1025,6 hPa 0,0 l/m 0 min 0 min 0,0 UV-I 0 W/m 0,0 km/h (0 Bft)
15.12.2013 02:46 4,8 C 3,3 C 92 % 1025,6 hPa 0,0 l/m 0 min 0 min 0,0 UV-I 0 W/m 5,1 km/h (1 Bft)
15.12.2013 02:48 4,8 C 3,3 C 92 % 1025,7 hPa 0,0 l/m 0 min 0 min 0,0 UV-I 0 W/m 7,7 km/h (2 Bft)
15.12.2013 02:50 4,8 C 3,3 C 92 % 1025,7 hPa 0,0 l/m 0 min 0 min 0,0 UV-I 0 W/m 5,1 km/h (1 Bft)
15.12.2013 02:52 4,8 C 3,3 C 92 % 1025,7 hPa 0,0 l/m 0 min 0 min 0,0 UV-I 0 W/m 7,7 km/h (2 Bft)
15.12.2013 02:54 4,8 C 3,3 C 92 % 1025,7 hPa 0,0 l/m 0 min 0 min 0,0 UV-I 0 W/m 5,1 km/h (1 Bft)
15.12.2013 02:56 4,8 C 3,3 C 92 % 1025,6 hPa 0,0 l/m 0 min 0 min 0,0 UV-I 0 W/m 0,0 km/h (0 Bft)
15.12.2013 02:58 4,8 C 3,3 C 92 % 1025,5 hPa 0,0 l/m 0 min 0 min 0,0 UV-I 0 W/m 10,3 km/h (2 Bft)
15.12.2013 03:00 4,8 C 3,3 C 92 % 1025,7 hPa 0,0 l/m 0 min 0 min 0,0 UV-I 0 W/m 5,1 km/h (1 Bft)
15.12.2013 03:02 4,8 C 3,3 C 92 % 1025,8 hPa 0,0 l/m 0 min 0 min 0,0 UV-I 0 W/m 0,0 km/h (0 Bft)
15.12.2013 03:04 4,8 C 3,3 C 92 % 1025,8 hPa 0,0 l/m 0 min 0 min 0,0 UV-I 0 W/m 0,0 km/h (0 Bft)
15.12.2013 03:06 4,8 C 3,3 C 92 % 1025,7 hPa 0,0 l/m 0 min 0 min 0,0 UV-I 0 W/m 2,6 km/h (1 Bft)
15.12.2013 03:08 4,8 C 3,3 C 92 % 1025,8 hPa 0,0 l/m 0 min 0 min 0,0 UV-I 0 W/m 2,6 km/h (1 Bft)
15.12.2013 03:10 4,8 C 3,3 C 92 % 1025,7 hPa 0,0 l/m 0 min 0 min 0,0 UV-I 0 W/m 7,7 km/h (2 Bft)
15.12.2013 03:12 4,8 C 3,3 C 92 % 1025,7 hPa 0,0 l/m 0 min 0 min 0,0 UV-I 0 W/m 0,0 km/h (0 Bft)
15.12.2013 03:14 4,8 C 3,3 C 92 % 1025,7 hPa 0,0 l/m 0 min 0 min 0,0 UV-I 0 W/m 2,6 km/h (1 Bft)
15.12.2013 03:16 4,8 C 3,3 C 92 % 1025,7 hPa 0,0 l/m 0 min 0 min 0,0 UV-I 0 W/m 7,7 km/h (2 Bft)
15.12.2013 03:18 4,8 C 3,3 C 92 % 1025,7 hPa 0,0 l/m 0 min 0 min 0,0 UV-I 0 W/m 7,7 km/h (2 Bft)
15.12.2013 03:20 4,8 C 3,3 C 92 % 1025,7 hPa 0,0 l/m 0 min 0 min 0,0 UV-I 0 W/m 0,0 km/h (0 Bft)
15.12.2013 03:22 4,8 C 3,3 C 92 % 1025,7 hPa 0,0 l/m 0 min 0 min 0,0 UV-I 0 W/m 2,6 km/h (1 Bft)
15.12.2013 03:24 4,8 C 3,3 C 92 % 1025,7 hPa 0,0 l/m 0 min 0 min 0,0 UV-I 0 W/m 5,1 km/h (1 Bft)
15.12.2013 03:26 4,8 C 3,3 C 92 % 1025,7 hPa 0,0 l/m 0 min 0 min 0,0 UV-I 0 W/m 0,0 km/h (0 Bft)
15.12.2013 03:28 4,8 C 3,3 C 92 % 1025,8 hPa 0,0 l/m 0 min 0 min 0,0 UV-I 0 W/m 0,0 km/h (0 Bft)
15.12.2013 03:30 4,8 C 3,3 C 92 % 1025,8 hPa 0,0 l/m 0 min 0 min 0,0 UV-I 0 W/m 10,3 km/h (2 Bft)
15.12.2013 03:32 4,8 C 3,3 C 92 % 1025,8 hPa 0,0 l/m 0 min 0 min 0,0 UV-I 0 W/m 0,0 km/h (0 Bft)
15.12.2013 03:34 4,8 C 3,3 C 92 % 1025,8 hPa 0,0 l/m 0 min 0 min 0,0 UV-I 0 W/m 0,0 km/h (0 Bft)
15.12.2013 03:36 4,8 C 3,3 C 92 % 1025,8 hPa 0,0 l/m 0 min 0 min 0,0 UV-I 0 W/m 2,6 km/h (1 Bft)
15.12.2013 03:38 4,8 C 3,3 C 92 % 1025,8 hPa 0,0 l/m 0 min 0 min 0,0 UV-I 0 W/m 0,0 km/h (0 Bft)
15.12.2013 03:40 4,8 C 3,3 C 92 % 1026,0 hPa 0,0 l/m 0 min 0 min 0,0 UV-I 0 W/m 0,0 km/h (0 Bft)
15.12.2013 03:42 4,8 C 3,3 C 92 % 1026,0 hPa 0,0 l/m 0 min 0 min 0,0 UV-I 0 W/m 0,0 km/h (0 Bft)
15.12.2013 03:44 4,8 C 3,3 C 92 % 1026,0 hPa 0,0 l/m 0 min 0 min 0,0 UV-I 0 W/m 0,0 km/h (0 Bft)
15.12.2013 03:46 4,8 C 3,3 C 92 % 1026,0 hPa 0,0 l/m 0 min 0 min 0,0 UV-I 0 W/m 0,0 km/h (0 Bft)
15.12.2013 03:48 4,8 C 3,3 C 92 % 1026,1 hPa 0,0 l/m 0 min 0 min 0,0 UV-I 0 W/m 0,0 km/h (0 Bft)
15.12.2013 03:50 4,8 C 3,3 C 92 % 1026,2 hPa 0,0 l/m 0 min 0 min 0,0 UV-I 0 W/m 0,0 km/h (0 Bft)
15.12.2013 03:52 4,8 C 3,3 C 92 % 1026,3 hPa 0,0 l/m 0 min 0 min 0,0 UV-I 0 W/m 0,0 km/h (0 Bft)
15.12.2013 03:54 4,8 C 3,3 C 92 % 1026,3 hPa 0,0 l/m 0 min 0 min 0,0 UV-I 0 W/m 0,0 km/h (0 Bft)
15.12.2013 03:56 4,8 C 3,3 C 92 % 1026,4 hPa 0,0 l/m 0 min 0 min 0,0 UV-I 0 W/m 0,0 km/h (0 Bft)
15.12.2013 03:58 4,8 C 3,3 C 92 % 1026,4 hPa 0,0 l/m 0 min 0 min 0,0 UV-I 0 W/m 0,0 km/h (0 Bft)
15.12.2013 04:00 4,8 C 3,3 C 92 % 1026,2 hPa 0,0 l/m 0 min 0 min 0,0 UV-I 0 W/m 0,0 km/h (0 Bft)
15.12.2013 04:05 4,8 C 3,3 C 92 % 1026,4 hPa 0,0 l/m 0 min 0 min 0,0 UV-I 0 W/m 2,6 km/h (1 Bft)
15.12.2013 04:10 4,8 C 3,3 C 92 % 1026,3 hPa 0,0 l/m 0 min 0 min 0,0 UV-I 0 W/m 0,0 km/h (0 Bft)
15.12.2013 04:15 4,8 C 3,3 C 92 % 1026,2 hPa 0,0 l/m 0 min 0 min 0,0 UV-I 0 W/m 0,0 km/h (0 Bft)
15.12.2013 04:20 4,9 C 3,3 C 92 % 1026,1 hPa 0,0 l/m 0 min 0 min 0,0 UV-I 0 W/m 7,7 km/h (2 Bft)
15.12.2013 04:25 4,9 C 3,9 C 92 % 1025,9 hPa 0,0 l/m 0 min 0 min 0,0 UV-I 0 W/m 12,9 km/h (3 Bft)
15.12.2013 04:30 5,1 C 3,9 C 92 % 1025,7 hPa 0,0 l/m 0 min 0 min 0,0 UV-I 0 W/m 7,7 km/h (2 Bft)
15.12.2013 04:35 5,2 C 4,4 C 92 % 1025,6 hPa 0,0 l/m 0 min 0 min 0,0 UV-I 0 W/m 18,0 km/h (3 Bft)
15.12.2013 04:40 5,4 C 4,4 C 92 % 1025,5 hPa 0,0 l/m 0 min 0 min 0,0 UV-I 0 W/m 18,0 km/h (3 Bft)
15.12.2013 04:45 5,7 C 5,0 C 92 % 1025,4 hPa 0,0 l/m 0 min 0 min 0,0 UV-I 0 W/m 20,6 km/h (4 Bft)
15.12.2013 04:50 6,0 C 5,0 C 91 % 1025,4 hPa 0,0 l/m 0 min 0 min 0,0 UV-I 0 W/m 25,7 km/h (4 Bft)
15.12.2013 04:55 6,3 C 5,6 C 90 % 1025,3 hPa 0,0 l/m 0 min 0 min 0,0 UV-I 0 W/m 30,9 km/h (5 Bft)
15.12.2013 05:00 6,6 C 5,6 C 89 % 1025,2 hPa 0,0 l/m 0 min 0 min 0,0 UV-I 0 W/m 25,7 km/h (4 Bft)
15.12.2013 05:05 6,7 C 5,6 C 88 % 1025,0 hPa 0,2 l/m 0 min 0 min 0,0 UV-I 0 W/m 36,0 km/h (5 Bft)
15.12.2013 05:10 6,9 C 5,6 C 87 % 1024,8 hPa 0,0 l/m 0 min 0 min 0,0 UV-I 0 W/m 30,9 km/h (5 Bft)
15.12.2013 05:15 7,1 C 5,6 C 86 % 1024,8 hPa 0,0 l/m 0 min 0 min 0,0 UV-I 0 W/m 33,5 km/h (5 Bft)
15.12.2013 05:20 7,2 C 5,6 C 85 % 1025,2 hPa 0,0 l/m 0 min 0 min 0,0 UV-I 0 W/m 36,0 km/h (5 Bft)
15.12.2013 05:25 7,3 C 5,6 C 84 % 1024,8 hPa 0,0 l/m 0 min 0 min 0,0 UV-I 0 W/m 36,0 km/h (5 Bft)
15.12.2013 05:30 7,3 C 5,6 C 83 % 1024,9 hPa 0,0 l/m 0 min 0 min 0,0 UV-I 0 W/m 25,7 km/h (4 Bft)
15.12.2013 05:35 7,4 C 5,6 C 83 % 1025,0 hPa 0,0 l/m 0 min 0 min 0,0 UV-I 0 W/m 20,6 km/h (4 Bft)
15.12.2013 05:40 7,4 C 6,1 C 82 % 1024,9 hPa 0,0 l/m 0 min 0 min 0,0 UV-I 0 W/m 25,7 km/h (4 Bft)
15.12.2013 05:45 7,5 C 6,1 C 82 % 1024,8 hPa 0,0 l/m 0 min 0 min 0,0 UV-I 0 W/m 25,7 km/h (4 Bft)
15.12.2013 05:50 7,6 C 6,1 C 81 % 1024,8 hPa 0,0 l/m 0 min 0 min 0,0 UV-I 0 W/m 30,9 km/h (5 Bft)
15.12.2013 05:55 7,6 C 5,6 C 81 % 1024,9 hPa 0,0 l/m 0 min 0 min 0,0 UV-I 0 W/m 18,0 km/h (3 Bft)
15.12.2013 06:00 7,6 C 5,6 C 81 % 1024,7 hPa 0,0 l/m 0 min 0 min 0,0 UV-I 0 W/m 33,5 km/h (5 Bft)
15.12.2013 06:05 7,6 C 6,1 C 80 % 1025,0 hPa 0,0 l/m 0 min 0 min 0,0 UV-I 0 W/m 25,7 km/h (4 Bft)
15.12.2013 06:10 7,6 C 6,1 C 80 % 1025,1 hPa 0,0 l/m 0 min 0 min 0,0 UV-I 0 W/m 18,0 km/h (3 Bft)
15.12.2013 06:15 7,6 C 6,1 C 80 % 1025,1 hPa 0,0 l/m 0 min 0 min 0,0 UV-I 0 W/m 18,0 km/h (3 Bft)
15.12.2013 06:20 7,6 C 5,6 C 79 % 1025,0 hPa 0,0 l/m 0 min 2 min 0,0 UV-I 0 W/m 18,0 km/h (3 Bft)
15.12.2013 06:25 7,7 C 5,0 C 79 % 1025,3 hPa 0,0 l/m 0 min 2 min 0,0 UV-I 0 W/m 23,2 km/h (4 Bft)
15.12.2013 06:30 7,7 C 5,0 C 80 % 1025,3 hPa 0,0 l/m 0 min 2 min 0,0 UV-I 0 W/m 10,3 km/h (2 Bft)
15.12.2013 06:35 7,6 C 4,4 C 80 % 1025,4 hPa 0,0 l/m 0 min 2 min 0,0 UV-I 0 W/m 15,4 km/h (3 Bft)
15.12.2013 06:40 7,6 C 4,4 C 80 % 1025,5 hPa 0,0 l/m 0 min 2 min 0,0 UV-I 0 W/m 33,5 km/h (5 Bft)
15.12.2013 06:45 7,4 C 4,4 C 80 % 1025,4 hPa 0,0 l/m 0 min 2 min 0,0 UV-I 0 W/m 30,9 km/h (5 Bft)
15.12.2013 06:50 7,4 C 4,4 C 80 % 1025,3 hPa 0,0 l/m 0 min 2 min 0,0 UV-I 0 W/m 23,2 km/h (4 Bft)
15.12.2013 06:55 7,4 C 4,4 C 80 % 1025,2 hPa 0,0 l/m 0 min 2 min 0,0 UV-I 0 W/m 25,7 km/h (4 Bft)
15.12.2013 07:00 7,3 C 4,4 C 80 % 1025,2 hPa 0,0 l/m 0 min 0 min 0,0 UV-I 0 W/m 23,2 km/h (4 Bft)
15.12.2013 07:05 7,3 C 4,4 C 80 % 1025,2 hPa 0,0 l/m 0 min 0 min 0,0 UV-I 0 W/m 18,0 km/h (3 Bft)
15.12.2013 07:10 7,3 C 4,4 C 80 % 1025,2 hPa 0,0 l/m 0 min 0 min 0,0 UV-I 0 W/m 15,4 km/h (3 Bft)
15.12.2013 07:15 7,4 C 4,4 C 79 % 1025,3 hPa 0,0 l/m 0 min 0 min 0,0 UV-I 0 W/m 25,7 km/h (4 Bft)
15.12.2013 07:20 7,4 C 5,0 C 79 % 1025,5 hPa 0,0 l/m 0 min 0 min 0,0 UV-I 0 W/m 12,9 km/h (3 Bft)
15.12.2013 07:25 7,4 C 5,6 C 79 % 1025,5 hPa 0,0 l/m 0 min 0 min 0,0 UV-I 0 W/m 15,4 km/h (3 Bft)
15.12.2013 07:30 7,4 C 5,6 C 78 % 1025,4 hPa 0,0 l/m 0 min 0 min 0,0 UV-I 0 W/m 36,0 km/h (5 Bft)
15.12.2013 07:35 7,5 C 5,6 C 79 % 1025,5 hPa 0,0 l/m 0 min 2 min 0,0 UV-I 0 W/m 30,9 km/h (5 Bft)
15.12.2013 07:40 7,4 C 5,0 C 80 % 1025,6 hPa 0,0 l/m 0 min 0 min 0,0 UV-I 0 W/m 23,2 km/h (4 Bft)
15.12.2013 07:45 7,4 C 5,6 C 80 % 1025,8 hPa 0,0 l/m 0 min 0 min 0,0 UV-I 0 W/m 25,7 km/h (4 Bft)
15.12.2013 07:50 7,3 C 5,6 C 80 % 1025,7 hPa 0,0 l/m 0 min 0 min 0,0 UV-I 0 W/m 12,9 km/h (3 Bft)
15.12.2013 08:01 7,4 C 5,6 C 79 % 1025,8 hPa 0,0 l/m 0 min 0 min 0,0 UV-I 0 W/m 18,0 km/h (3 Bft)
15.12.2013 08:02 7,4 C 6,1 C 79 % 1025,7 hPa 0,0 l/m 0 min 0 min 0,0 UV-I 0 W/m 38,6 km/h (5 Bft)
15.12.2013 08:04 7,5 C 6,1 C 79 % 1025,8 hPa 0,0 l/m 0 min 0 min 0,0 UV-I 0 W/m 38,6 km/h (5 Bft)
15.12.2013 08:06 7,5 C 6,1 C 79 % 1025,7 hPa 0,0 l/m 0 min 0 min 0,0 UV-I 0 W/m 12,9 km/h (3 Bft)
15.12.2013 08:08 7,6 C 6,1 C 79 % 1025,7 hPa 0,0 l/m 0 min 0 min 0,0 UV-I 0 W/m 18,0 km/h (3 Bft)
15.12.2013 08:10 7,6 C 6,1 C 78 % 1025,8 hPa 0,0 l/m 0 min 0 min 0,0 UV-I 0 W/m 10,3 km/h (2 Bft)
15.12.2013 08:12 7,6 C 6,1 C 78 % 1025,7 hPa 0,0 l/m 0 min 0 min 0,0 UV-I 0 W/m 15,4 km/h (3 Bft)
15.12.2013 08:14 7,6 C 6,1 C 78 % 1025,8 hPa 0,0 l/m 0 min 0 min 0,0 UV-I 0 W/m 20,6 km/h (4 Bft)
15.12.2013 08:16 7,6 C 6,1 C 79 % 1025,8 hPa 0,0 l/m 0 min 0 min 0,0 UV-I 0 W/m 18,0 km/h (3 Bft)
15.12.2013 08:18 7,6 C 6,1 C 79 % 1025,9 hPa 0,0 l/m 0 min 0 min 0,0 UV-I 0 W/m 20,6 km/h (4 Bft)
15.12.2013 08:20 7,7 C 6,1 C 79 % 1025,9 hPa 0,0 l/m 0 min 0 min 0,0 UV-I 0 W/m 18,0 km/h (3 Bft)
15.12.2013 08:22 7,7 C 6,1 C 79 % 1026,0 hPa 0,0 l/m 0 min 0 min 0,0 UV-I 0 W/m 10,3 km/h (2 Bft)
15.12.2013 08:24 7,7 C 6,1 C 79 % 1026,1 hPa 0,0 l/m 0 min 0 min 0,0 UV-I 0 W/m 15,4 km/h (3 Bft)
15.12.2013 08:26 7,7 C 5,6 C 79 % 1026,1 hPa 0,0 l/m 0 min 0 min 0,0 UV-I 0 W/m 15,4 km/h (3 Bft)
15.12.2013 08:28 7,7 C 6,1 C 79 % 1026,1 hPa 0,0 l/m 0 min 0 min 0,0 UV-I 0 W/m 12,9 km/h (3 Bft)
15.12.2013 08:30 7,6 C 6,1 C 79 % 1026,2 hPa 0,0 l/m 0 min 0 min 0,0 UV-I 0 W/m 18,0 km/h (3 Bft)
15.12.2013 08:32 7,7 C 6,1 C 79 % 1026,2 hPa 0,0 l/m 0 min 0 min 0,0 UV-I 0 W/m 15,4 km/h (3 Bft)
15.12.2013 08:34 7,6 C 6,1 C 79 % 1026,2 hPa 0,0 l/m 0 min 0 min 0,0 UV-I 0 W/m 7,7 km/h (2 Bft)
15.12.2013 08:36 7,6 C 6,1 C 79 % 1026,3 hPa 0,0 l/m 0 min 0 min 0,0 UV-I 0 W/m 10,3 km/h (2 Bft)
15.12.2013 08:38 7,6 C 6,1 C 79 % 1026,3 hPa 0,0 l/m 0 min 0 min 0,0 UV-I 0 W/m 20,6 km/h (4 Bft)
15.12.2013 08:40 7,6 C 6,1 C 79 % 1026,3 hPa 0,0 l/m 0 min 0 min 0,0 UV-I 0 W/m 15,4 km/h (3 Bft)
15.12.2013 08:42 7,6 C 6,1 C 79 % 1026,4 hPa 0,0 l/m 0 min 0 min 0,0 UV-I 0 W/m 15,4 km/h (3 Bft)
15.12.2013 08:44 7,6 C 5,6 C 80 % 1026,5 hPa 0,0 l/m 0 min 0 min 0,0 UV-I 0 W/m 12,9 km/h (3 Bft)
15.12.2013 08:46 7,6 C 5,6 C 80 % 1026,4 hPa 0,0 l/m 0 min 0 min 0,0 UV-I 0 W/m 23,2 km/h (4 Bft)
15.12.2013 08:48 7,6 C 5,6 C 80 % 1026,4 hPa 0,0 l/m 0 min 0 min 0,0 UV-I 0 W/m 18,0 km/h (3 Bft)
15.12.2013 08:50 7,6 C 5,6 C 81 % 1026,4 hPa 0,0 l/m 0 min 0 min 0,0 UV-I 0 W/m 36,0 km/h (5 Bft)
15.12.2013 08:52 7,6 C 5,6 C 81 % 1026,5 hPa 0,0 l/m 0 min 0 min 0,0 UV-I 0 W/m 10,3 km/h (2 Bft)
15.12.2013 08:54 7,5 C 5,6 C 81 % 1026,5 hPa 0,0 l/m 0 min 0 min 0,0 UV-I 0 W/m 18,0 km/h (3 Bft)
15.12.2013 08:56 7,5 C 5,6 C 81 % 1026,6 hPa 0,0 l/m 0 min 2 min 0,0 UV-I 0 W/m 18,0 km/h (3 Bft)
15.12.2013 08:58 7,4 C 5,6 C 81 % 1026,6 hPa 0,0 l/m 0 min 0 min 0,0 UV-I 0 W/m 18,0 km/h (3 Bft)
15.12.2013 09:00 7,4 C 5,6 C 82 % 1026,7 hPa 0,0 l/m 0 min 0 min 0,0 UV-I 0 W/m 23,2 km/h (4 Bft)
15.12.2013 09:02 7,4 C 5,6 C 82 % 1026,8 hPa 0,0 l/m 0 min 0 min 0,0 UV-I 0 W/m 12,9 km/h (3 Bft)
15.12.2013 09:04 7,4 C 5,6 C 82 % 1026,8 hPa 0,0 l/m 0 min 0 min 0,0 UV-I 5 W/m 25,7 km/h (4 Bft)
15.12.2013 09:06 7,3 C 5,6 C 82 % 1026,8 hPa 0,0 l/m 0 min 2 min 0,0 UV-I 5 W/m 20,6 km/h (4 Bft)
15.12.2013 09:08 7,3 C 5,0 C 83 % 1026,8 hPa 0,0 l/m 0 min 2 min 0,0 UV-I 7 W/m 7,7 km/h (2 Bft)
15.12.2013 09:10 7,3 C 5,0 C 84 % 1026,9 hPa 0,0 l/m 0 min 0 min 0,0 UV-I 9 W/m 7,7 km/h (2 Bft)
15.12.2013 09:12 7,2 C 5,0 C 84 % 1026,8 hPa 0,0 l/m 0 min 0 min 0,0 UV-I 9 W/m 12,9 km/h (3 Bft)
15.12.2013 09:14 7,2 C 5,0 C 85 % 1026,8 hPa 0,0 l/m 0 min 0 min 0,0 UV-I 11 W/m 10,3 km/h (2 Bft)
15.12.2013 09:16 7,2 C 5,0 C 85 % 1027,0 hPa 0,0 l/m 0 min 0 min 0,0 UV-I 14 W/m 23,2 km/h (4 Bft)
15.12.2013 09:18 7,1 C 5,0 C 85 % 1026,9 hPa 0,0 l/m 0 min 0 min 0,0 UV-I 14 W/m 20,6 km/h (4 Bft)
15.12.2013 09:20 7,1 C 5,0 C 85 % 1026,9 hPa 0,0 l/m 0 min 0 min 0,0 UV-I 12 W/m 7,7 km/h (2 Bft)
15.12.2013 09:22 7,1 C 5,0 C 86 % 1026,9 hPa 0,0 l/m 0 min 0 min 0,0 UV-I 16 W/m 10,3 km/h (2 Bft)
15.12.2013 09:24 7,1 C 5,0 C 86 % 1026,9 hPa 0,0 l/m 0 min 0 min 0,0 UV-I 16 W/m 15,4 km/h (3 Bft)
15.12.2013 09:26 7,1 C 5,6 C 86 % 1027,0 hPa 0,0 l/m 0 min 0 min 0,0 UV-I 18 W/m 12,9 km/h (3 Bft)
15.12.2013 09:28 7,1 C 5,6 C 86 % 1027,0 hPa 0,0 l/m 0 min 0 min 0,0 UV-I 19 W/m 20,6 km/h (4 Bft)
15.12.2013 09:30 7,1 C 5,6 C 86 % 1027,1 hPa 0,0 l/m 0 min 0 min 0,0 UV-I 14 W/m 7,7 km/h (2 Bft)
15.12.2013 09:32 7,1 C 5,6 C 87 % 1027,1 hPa 0,0 l/m 0 min 0 min 0,0 UV-I 14 W/m 10,3 km/h (2 Bft)
15.12.2013 09:34 7,1 C 5,6 C 86 % 1027,0 hPa 0,0 l/m 0 min 0 min 0,0 UV-I 14 W/m 15,4 km/h (3 Bft)
15.12.2013 09:36 7,1 C 5,6 C 86 % 1026,9 hPa 0,0 l/m 0 min 0 min 0,0 UV-I 16 W/m 10,3 km/h (2 Bft)
15.12.2013 09:38 7,1 C 5,6 C 86 % 1027,0 hPa 0,0 l/m 0 min 0 min 0,0 UV-I 14 W/m 20,6 km/h (4 Bft)
15.12.2013 09:40 7,1 C 5,6 C 86 % 1027,0 hPa 0,0 l/m 0 min 0 min 0,0 UV-I 18 W/m 18,0 km/h (3 Bft)
15.12.2013 09:42 7,1 C 5,6 C 87 % 1027,1 hPa 0,0 l/m 0 min 0 min 0,0 UV-I 19 W/m 12,9 km/h (3 Bft)
15.12.2013 09:44 7,1 C 5,6 C 87 % 1027,2 hPa 0,0 l/m 0 min 0 min 0,0 UV-I 18 W/m 23,2 km/h (4 Bft)
15.12.2013 09:46 7,1 C 5,6 C 87 % 1027,2 hPa 0,0 l/m 0 min 0 min 0,0 UV-I 21 W/m 10,3 km/h (2 Bft)
15.12.2013 09:48 7,1 C 5,6 C 87 % 1027,3 hPa 0,0 l/m 0 min 0 min 0,0 UV-I 23 W/m 18,0 km/h (3 Bft)
15.12.2013 09:50 7,1 C 5,6 C 87 % 1027,2 hPa 0,0 l/m 0 min 0 min 0,0 UV-I 21 W/m 18,0 km/h (3 Bft)
15.12.2013 09:52 7,2 C 5,6 C 87 % 1027,3 hPa 0,0 l/m 0 min 0 min 0,0 UV-I 21 W/m 18,0 km/h (3 Bft)
15.12.2013 09:54 7,2 C 5,6 C 87 % 1027,3 hPa 0,0 l/m 0 min 0 min 0,0 UV-I 21 W/m 7,7 km/h (2 Bft)
15.12.2013 09:56 7,2 C 5,6 C 87 % 1027,4 hPa 0,0 l/m 0 min 0 min 0,0 UV-I 21 W/m 12,9 km/h (3 Bft)
15.12.2013 09:58 7,2 C 6,1 C 87 % 1027,5 hPa 0,0 l/m 0 min 0 min 0,0 UV-I 23 W/m 15,4 km/h (3 Bft)
15.12.2013 10:00 7,2 C 6,1 C 87 % 1027,5 hPa 0,0 l/m 0 min 0 min 0,0 UV-I 28 W/m 15,4 km/h (3 Bft)
15.12.2013 10:02 7,2 C 6,1 C 87 % 1027,5 hPa 0,0 l/m 0 min 0 min 0,0 UV-I 42 W/m 10,3 km/h (2 Bft)
15.12.2013 10:04 7,2 C 6,1 C 87 % 1027,5 hPa 0,0 l/m 0 min 0 min 0,0 UV-I 35 W/m 12,9 km/h (3 Bft)
15.12.2013 10:06 7,2 C 6,1 C 87 % 1027,6 hPa 0,0 l/m 0 min 0 min 0,0 UV-I 32 W/m 15,4 km/h (3 Bft)
15.12.2013 10:08 7,3 C 6,1 C 87 % 1027,6 hPa 0,0 l/m 0 min 0 min 0,0 UV-I 42 W/m 10,3 km/h (2 Bft)
15.12.2013 10:10 7,3 C 6,1 C 87 % 1027,7 hPa 0,0 l/m 0 min 0 min 0,0 UV-I 44 W/m 10,3 km/h (2 Bft)
15.12.2013 10:12 7,3 C 6,1 C 87 % 1027,6 hPa 0,0 l/m 0 min 0 min 0,0 UV-I 46 W/m 18,0 km/h (3 Bft)
15.12.2013 10:14 7,3 C 6,1 C 87 % 1027,6 hPa 0,0 l/m 0 min 0 min 0,0 UV-I 53 W/m 12,9 km/h (3 Bft)
15.12.2013 10:16 7,3 C 6,1 C 87 % 1027,6 hPa 0,0 l/m 0 min 0 min 0,0 UV-I 53 W/m 20,6 km/h (4 Bft)
15.12.2013 10:18 7,4 C 6,1 C 87 % 1027,6 hPa 0,0 l/m 0 min 0 min 0,0 UV-I 56 W/m 18,0 km/h (3 Bft)
15.12.2013 10:20 7,4 C 6,1 C 87 % 1027,6 hPa 0,0 l/m 0 min 0 min 0,0 UV-I 83 W/m 20,6 km/h (4 Bft)
15.12.2013 10:22 7,4 C 6,1 C 87 % 1027,6 hPa 0,0 l/m 0 min 0 min 0,0 UV-I 83 W/m 15,4 km/h (3 Bft)
15.12.2013 10:24 7,4 C 6,1 C 87 % 1027,6 hPa 0,0 l/m 0 min 0 min 0,0 UV-I 62 W/m 10,3 km/h (2 Bft)
15.12.2013 10:26 7,5 C 6,1 C 87 % 1027,6 hPa 0,0 l/m 0 min 0 min 0,0 UV-I 56 W/m 10,3 km/h (2 Bft)
15.12.2013 10:28 7,5 C 6,1 C 87 % 1027,6 hPa 0,0 l/m 0 min 0 min 0,0 UV-I 39 W/m 7,7 km/h (2 Bft)
15.12.2013 10:30 7,5 C 6,1 C 87 % 1027,7 hPa 0,0 l/m 0 min 0 min 0,0 UV-I 33 W/m 10,3 km/h (2 Bft)
15.12.2013 10:32 7,5 C 6,1 C 87 % 1027,7 hPa 0,0 l/m 0 min 0 min 0,0 UV-I 39 W/m 10,3 km/h (2 Bft)
15.12.2013 10:34 7,6 C 6,1 C 87 % 1027,6 hPa 0,0 l/m 0 min 0 min 0,0 UV-I 30 W/m 10,3 km/h (2 Bft)
15.12.2013 10:36 7,5 C 6,1 C 87 % 1027,7 hPa 0,0 l/m 0 min 0 min 0,0 UV-I 35 W/m 10,3 km/h (2 Bft)
15.12.2013 10:38 7,6 C 6,1 C 87 % 1027,7 hPa 0,0 l/m 0 min 0 min 0,0 UV-I 44 W/m 20,6 km/h (4 Bft)
15.12.2013 10:40 7,6 C 6,1 C 87 % 1027,7 hPa 0,0 l/m 0 min 0 min 0,0 UV-I 40 W/m 10,3 km/h (2 Bft)
15.12.2013 10:42 7,6 C 6,1 C 87 % 1027,9 hPa 0,0 l/m 0 min 0 min 0,0 UV-I 39 W/m 12,9 km/h (3 Bft)
15.12.2013 10:44 7,6 C 6,1 C 87 % 1027,8 hPa 0,0 l/m 0 min 0 min 0,0 UV-I 44 W/m 7,7 km/h (2 Bft)
15.12.2013 10:46 7,6 C 6,1 C 87 % 1027,8 hPa 0,0 l/m 0 min 0 min 0,0 UV-I 44 W/m 12,9 km/h (3 Bft)
15.12.2013 10:48 7,6 C 6,1 C 87 % 1027,8 hPa 0,0 l/m 0 min 0 min 0,0 UV-I 47 W/m 2,6 km/h (1 Bft)
15.12.2013 10:50 7,6 C 6,1 C 87 % 1027,9 hPa 0,0 l/m 0 min 0 min 0,0 UV-I 40 W/m 15,4 km/h (3 Bft)
15.12.2013 10:52 7,6 C 6,1 C 87 % 1027,9 hPa 0,0 l/m 0 min 0 min 0,0 UV-I 51 W/m 12,9 km/h (3 Bft)
15.12.2013 10:54 7,6 C 6,7 C 87 % 1028,0 hPa 0,0 l/m 0 min 0 min 0,0 UV-I 53 W/m 5,1 km/h (1 Bft)
15.12.2013 10:56 7,6 C 6,7 C 87 % 1028,0 hPa 0,0 l/m 0 min 0 min 0,0 UV-I 56 W/m 2,6 km/h (1 Bft)
15.12.2013 10:58 7,6 C 6,7 C 87 % 1028,0 hPa 0,0 l/m 0 min 0 min 0,0 UV-I 53 W/m 7,7 km/h (2 Bft)
15.12.2013 11:00 7,6 C 6,7 C 87 % 1028,1 hPa 0,0 l/m 0 min 0 min 0,0 UV-I 60 W/m 10,3 km/h (2 Bft)
15.12.2013 11:02 7,6 C 6,7 C 87 % 1028,0 hPa 0,0 l/m 0 min 0 min 0,0 UV-I 51 W/m 5,1 km/h (1 Bft)
15.12.2013 11:04 7,7 C 6,7 C 87 % 1028,1 hPa 0,0 l/m 0 min 0 min 0,0 UV-I 42 W/m 12,9 km/h (3 Bft)
15.12.2013 11:06 7,7 C 6,7 C 87 % 1028,1 hPa 0,0 l/m 0 min 0 min 0,0 UV-I 47 W/m 20,6 km/h (4 Bft)
15.12.2013 11:08 7,7 C 6,7 C 87 % 1028,0 hPa 0,0 l/m 0 min 0 min 0,0 UV-I 42 W/m 10,3 km/h (2 Bft)
15.12.2013 11:10 7,7 C 6,7 C 86 % 1027,9 hPa 0,0 l/m 0 min 0 min 0,0 UV-I 46 W/m 12,9 km/h (3 Bft)
15.12.2013 11:12 7,7 C 6,7 C 86 % 1027,9 hPa 0,0 l/m 0 min 0 min 0,0 UV-I 49 W/m 7,7 km/h (2 Bft)
15.12.2013 11:14 7,7 C 6,7 C 86 % 1027,9 hPa 0,0 l/m 0 min 0 min 0,0 UV-I 49 W/m 7,7 km/h (2 Bft)
15.12.2013 11:16 7,7 C 6,7 C 87 % 1027,9 hPa 0,0 l/m 0 min 0 min 0,0 UV-I 46 W/m 5,1 km/h (1 Bft)
15.12.2013 11:18 7,7 C 6,7 C 87 % 1027,9 hPa 0,0 l/m 0 min 0 min 0,0 UV-I 46 W/m 12,9 km/h (3 Bft)
15.12.2013 11:20 7,7 C 6,7 C 86 % 1027,8 hPa 0,0 l/m 0 min 0 min 0,0 UV-I 47 W/m 7,7 km/h (2 Bft)
15.12.2013 11:22 7,7 C 6,7 C 86 % 1027,8 hPa 0,0 l/m 0 min 0 min 0,0 UV-I 47 W/m 12,9 km/h (3 Bft)
15.12.2013 11:24 7,7 C 6,7 C 86 % 1027,8 hPa 0,0 l/m 0 min 0 min 0,0 UV-I 53 W/m 15,4 km/h (3 Bft)
15.12.2013 11:26 7,7 C 6,7 C 86 % 1027,8 hPa 0,0 l/m 0 min 0 min 0,0 UV-I 51 W/m 5,1 km/h (1 Bft)
15.12.2013 11:28 7,7 C 6,7 C 86 % 1027,8 hPa 0,0 l/m 0 min 0 min 0,0 UV-I 49 W/m 7,7 km/h (2 Bft)
15.12.2013 11:30 7,7 C 6,7 C 86 % 1027,8 hPa 0,0 l/m 0 min 0 min 0,0 UV-I 60 W/m 12,9 km/h (3 Bft)
15.12.2013 11:32 7,7 C 6,7 C 86 % 1027,9 hPa 0,0 l/m 0 min 0 min 0,0 UV-I 53 W/m 12,9 km/h (3 Bft)
15.12.2013 11:34 7,7 C 6,7 C 86 % 1027,9 hPa 0,0 l/m 0 min 0 min 0,0 UV-I 56 W/m 0,0 km/h (0 Bft)
15.12.2013 11:36 7,7 C 6,7 C 87 % 1027,8 hPa 0,0 l/m 0 min 0 min 0,0 UV-I 58 W/m 12,9 km/h (3 Bft)
15.12.2013 11:38 7,7 C 6,7 C 86 % 1027,8 hPa 0,0 l/m 0 min 0 min 0,0 UV-I 56 W/m 10,3 km/h (2 Bft)
15.12.2013 11:40 7,7 C 6,7 C 86 % 1027,8 hPa 0,0 l/m 0 min 0 min 0,0 UV-I 62 W/m 5,1 km/h (1 Bft)
15.12.2013 11:42 7,7 C 6,7 C 86 % 1027,9 hPa 0,0 l/m 0 min 0 min 0,0 UV-I 74 W/m 12,9 km/h (3 Bft)
15.12.2013 11:44 7,8 C 6,7 C 86 % 1027,7 hPa 0,0 l/m 0 min 0 min 0,0 UV-I 74 W/m 2,6 km/h (1 Bft)
15.12.2013 11:46 7,8 C 6,7 C 86 % 1027,7 hPa 0,0 l/m 0 min 0 min 0,0 UV-I 79 W/m 12,9 km/h (3 Bft)
15.12.2013 11:48 7,7 C 6,7 C 86 % 1027,6 hPa 0,0 l/m 0 min 0 min 0,0 UV-I 79 W/m 12,9 km/h (3 Bft)
15.12.2013 11:50 7,8 C 6,7 C 86 % 1027,5 hPa 0,0 l/m 0 min 0 min 0,0 UV-I 74 W/m 15,4 km/h (3 Bft)
15.12.2013 11:52 7,8 C 6,7 C 86 % 1027,4 hPa 0,0 l/m 0 min 0 min 0,0 UV-I 70 W/m 10,3 km/h (2 Bft)
15.12.2013 11:54 7,8 C 6,7 C 86 % 1027,5 hPa 0,0 l/m 0 min 0 min 0,0 UV-I 69 W/m 10,3 km/h (2 Bft)
15.12.2013 11:56 7,8 C 6,7 C 86 % 1027,5 hPa 0,0 l/m 0 min 0 min 0,0 UV-I 70 W/m 12,9 km/h (3 Bft)
15.12.2013 11:58 7,8 C 6,7 C 86 % 1027,5 hPa 0,0 l/m 0 min 0 min 0,0 UV-I 65 W/m 10,3 km/h (2 Bft)
15.12.2013 12:00 7,8 C 6,7 C 86 % 1027,4 hPa 0,0 l/m 0 min 0 min 0,0 UV-I 67 W/m 15,4 km/h (3 Bft)
15.12.2013 12:02 7,8 C 6,7 C 86 % 1027,5 hPa 0,0 l/m 0 min 0 min 0,0 UV-I 70 W/m 15,4 km/h (3 Bft)
15.12.2013 12:06 7,8 C 6,7 C 86 % 1027,4 hPa 0,0 l/m 0 min 0 min 0,0 UV-I 76 W/m 18,0 km/h (3 Bft)
15.12.2013 12:08 7,8 C 6,7 C 86 % 1027,4 hPa 0,0 l/m 0 min 0 min 0,0 UV-I 72 W/m 10,3 km/h (2 Bft)
15.12.2013 12:10 7,8 C 6,7 C 86 % 1027,4 hPa 0,0 l/m 0 min 0 min 0,0 UV-I 63 W/m 10,3 km/h (2 Bft)
15.12.2013 12:12 7,8 C 6,7 C 86 % 1027,4 hPa 0,0 l/m 0 min 0 min 0,0 UV-I 60 W/m 0,0 km/h (0 Bft)
15.12.2013 12:14 7,8 C 6,7 C 86 % 1027,4 hPa 0,0 l/m 0 min 0 min 0,0 UV-I 54 W/m 10,3 km/h (2 Bft)
15.12.2013 12:16 7,8 C 6,7 C 86 % 1027,4 hPa 0,0 l/m 0 min 0 min 0,0 UV-I 53 W/m 12,9 km/h (3 Bft)
15.12.2013 12:18 7,8 C 6,7 C 86 % 1027,4 hPa 0,0 l/m 0 min 0 min 0,0 UV-I 65 W/m 7,7 km/h (2 Bft)
15.12.2013 12:20 7,8 C 6,7 C 86 % 1027,4 hPa 0,0 l/m 0 min 0 min 0,0 UV-I 60 W/m 2,6 km/h (1 Bft)
15.12.2013 12:22 7,8 C 6,7 C 87 % 1027,5 hPa 0,0 l/m 0 min 0 min 0,0 UV-I 60 W/m 18,0 km/h (3 Bft)
15.12.2013 12:24 7,8 C 6,7 C 87 % 1027,5 hPa 0,0 l/m 0 min 0 min 0,0 UV-I 49 W/m 10,3 km/h (2 Bft)
15.12.2013 12:26 7,8 C 6,7 C 87 % 1027,4 hPa 0,0 l/m 0 min 0 min 0,0 UV-I 58 W/m 18,0 km/h (3 Bft)
15.12.2013 12:28 7,8 C 6,7 C 87 % 1027,5 hPa 0,0 l/m 0 min 0 min 0,0 UV-I 54 W/m 2,6 km/h (1 Bft)
15.12.2013 12:30 7,7 C 6,7 C 88 % 1027,6 hPa 0,0 l/m 0 min 0 min 0,0 UV-I 51 W/m 10,3 km/h (2 Bft)
15.12.2013 12:32 7,8 C 6,7 C 88 % 1027,7 hPa 0,0 l/m 0 min 0 min 0,0 UV-I 54 W/m 7,7 km/h (2 Bft)
15.12.2013 12:34 7,7 C 6,7 C 88 % 1027,6 hPa 0,0 l/m 0 min 0 min 0,0 UV-I 65 W/m 10,3 km/h (2 Bft)
15.12.2013 12:36 7,7 C 6,7 C 88 % 1027,8 hPa 0,0 l/m 0 min 0 min 0,0 UV-I 86 W/m 12,9 km/h (3 Bft)
15.12.2013 12:38 7,7 C 6,7 C 88 % 1027,8 hPa 0,0 l/m 0 min 0 min 0,0 UV-I 86 W/m 20,6 km/h (4 Bft)
15.12.2013 12:40 7,7 C 6,7 C 88 % 1027,7 hPa 0,0 l/m 0 min 0 min 0,0 UV-I 72 W/m 10,3 km/h (2 Bft)
15.12.2013 12:42 7,7 C 6,7 C 88 % 1027,6 hPa 0,0 l/m 0 min 0 min 0,0 UV-I 88 W/m 5,1 km/h (1 Bft)
15.12.2013 12:44 7,7 C 6,7 C 89 % 1027,6 hPa 0,0 l/m 0 min 0 min 0,0 UV-I 98 W/m 18,0 km/h (3 Bft)
15.12.2013 12:46 7,7 C 6,7 C 89 % 1027,6 hPa 0,0 l/m 0 min 0 min 0,0 UV-I 86 W/m 10,3 km/h (2 Bft)
15.12.2013 12:48 7,7 C 6,7 C 89 % 1027,6 hPa 0,0 l/m 0 min 0 min 0,0 UV-I 88 W/m 12,9 km/h (3 Bft)
15.12.2013 12:50 7,8 C 6,7 C 89 % 1027,6 hPa 0,0 l/m 0 min 0 min 0,0 UV-I 84 W/m 18,0 km/h (3 Bft)
15.12.2013 12:52 7,8 C 7,2 C 89 % 1027,6 hPa 0,0 l/m 0 min 0 min 0,0 UV-I 91 W/m 12,9 km/h (3 Bft)
15.12.2013 12:54 7,8 C 7,2 C 89 % 1027,6 hPa 0,0 l/m 0 min 0 min 0,0 UV-I 91 W/m 15,4 km/h (3 Bft)
15.12.2013 12:56 7,8 C 7,2 C 89 % 1027,5 hPa 0,0 l/m 0 min 0 min 0,0 UV-I 98 W/m 10,3 km/h (2 Bft)
15.12.2013 12:58 7,8 C 7,2 C 89 % 1027,3 hPa 0,0 l/m 0 min 0 min 0,0 UV-I 98 W/m 10,3 km/h (2 Bft)
15.12.2013 13:00 7,8 C 7,2 C 89 % 1027,3 hPa 0,0 l/m 0 min 0 min 0,0 UV-I 105 W/m 23,2 km/h (4 Bft)
15.12.2013 13:02 7,8 C 7,2 C 89 % 1027,2 hPa 0,0 l/m 0 min 0 min 0,0 UV-I 98 W/m 12,9 km/h (3 Bft)
15.12.2013 13:04 7,8 C 6,7 C 89 % 1027,3 hPa 0,0 l/m 0 min 0 min 0,0 UV-I 90 W/m 15,4 km/h (3 Bft)
15.12.2013 13:06 7,8 C 7,2 C 89 % 1027,3 hPa 0,0 l/m 0 min 0 min 0,0 UV-I 100 W/m 12,9 km/h (3 Bft)
15.12.2013 13:08 7,8 C 7,2 C 89 % 1027,3 hPa 0,0 l/m 0 min 0 min 0,0 UV-I 97 W/m 10,3 km/h (2 Bft)
15.12.2013 13:10 7,8 C 7,2 C 89 % 1027,2 hPa 0,0 l/m 0 min 0 min 0,0 UV-I 86 W/m 12,9 km/h (3 Bft)
15.12.2013 13:12 7,9 C 7,2 C 89 % 1027,2 hPa 0,0 l/m 0 min 0 min 0,0 UV-I 83 W/m 7,7 km/h (2 Bft)
15.12.2013 13:14 7,9 C 7,2 C 89 % 1027,3 hPa 0,0 l/m 0 min 0 min 0,0 UV-I 81 W/m 12,9 km/h (3 Bft)
15.12.2013 13:16 7,9 C 7,2 C 89 % 1027,2 hPa 0,0 l/m 0 min 0 min 0,0 UV-I 69 W/m 18,0 km/h (3 Bft)
15.12.2013 13:18 7,9 C 7,2 C 89 % 1027,3 hPa 0,0 l/m 0 min 0 min 0,0 UV-I 63 W/m 15,4 km/h (3 Bft)
15.12.2013 13:20 7,9 C 6,7 C 89 % 1027,4 hPa 0,0 l/m 0 min 0 min 0,0 UV-I 72 W/m 25,7 km/h (4 Bft)
15.12.2013 13:22 7,8 C 6,7 C 89 % 1027,3 hPa 0,0 l/m 0 min 0 min 0,0 UV-I 69 W/m 20,6 km/h (4 Bft)
15.12.2013 13:24 7,8 C 6,7 C 89 % 1027,3 hPa 0,0 l/m 0 min 0 min 0,0 UV-I 70 W/m 15,4 km/h (3 Bft)
15.12.2013 13:26 7,8 C 6,7 C 89 % 1027,2 hPa 0,0 l/m 0 min 0 min 0,0 UV-I 69 W/m 7,7 km/h (2 Bft)
15.12.2013 13:28 7,9 C 7,2 C 89 % 1027,2 hPa 0,0 l/m 0 min 0 min 0,0 UV-I 72 W/m 15,4 km/h (3 Bft)
15.12.2013 13:30 7,9 C 7,2 C 89 % 1027,1 hPa 0,0 l/m 0 min 0 min 0,0 UV-I 79 W/m 12,9 km/h (3 Bft)
15.12.2013 13:32 7,9 C 7,2 C 89 % 1027,1 hPa 0,0 l/m 0 min 0 min 0,0 UV-I 79 W/m 7,7 km/h (2 Bft)
15.12.2013 13:34 7,9 C 7,2 C 89 % 1027,0 hPa 0,0 l/m 0 min 0 min 0,0 UV-I 58 W/m 10,3 km/h (2 Bft)
15.12.2013 13:36 7,9 C 7,2 C 89 % 1027,0 hPa 0,0 l/m 0 min 0 min 0,0 UV-I 49 W/m 12,9 km/h (3 Bft)
15.12.2013 13:38 7,9 C 6,7 C 89 % 1027,0 hPa 0,0 l/m 0 min 0 min 0,0 UV-I 63 W/m 15,4 km/h (3 Bft)
15.12.2013 13:40 7,9 C 7,2 C 89 % 1027,0 hPa 0,0 l/m 0 min 0 min 0,0 UV-I 60 W/m 18,0 km/h (3 Bft)
15.12.2013 13:42 7,9 C 7,2 C 89 % 1027,0 hPa 0,0 l/m 0 min 0 min 0,0 UV-I 44 W/m 15,4 km/h (3 Bft)
15.12.2013 13:44 7,9 C 7,2 C 89 % 1027,0 hPa 0,0 l/m 0 min 0 min 0,0 UV-I 46 W/m 0,0 km/h (0 Bft)
15.12.2013 13:46 7,9 C 7,2 C 89 % 1026,9 hPa 0,0 l/m 0 min 0 min 0,0 UV-I 37 W/m 15,4 km/h (3 Bft)
15.12.2013 13:48 7,9 C 6,7 C 89 % 1026,9 hPa 0,0 l/m 0 min 0 min 0,0 UV-I 33 W/m 0,0 km/h (0 Bft)
15.12.2013 13:50 7,9 C 6,7 C 89 % 1026,9 hPa 0,0 l/m 0 min 0 min 0,0 UV-I 47 W/m 10,3 km/h (2 Bft)
15.12.2013 13:52 7,9 C 6,7 C 89 % 1026,9 hPa 0,0 l/m 0 min 0 min 0,0 UV-I 67 W/m 12,9 km/h (3 Bft)
15.12.2013 13:54 7,9 C 7,2 C 89 % 1026,9 hPa 0,0 l/m 0 min 0 min 0,0 UV-I 70 W/m 7,7 km/h (2 Bft)
15.12.2013 13:56 7,9 C 7,2 C 89 % 1026,8 hPa 0,0 l/m 0 min 0 min 0,0 UV-I 76 W/m 7,7 km/h (2 Bft)
15.12.2013 13:58 8,0 C 7,2 C 89 % 1026,8 hPa 0,0 l/m 0 min 0 min 0,0 UV-I 113 W/m 18,0 km/h (3 Bft)
15.12.2013 14:00 8,0 C 7,2 C 89 % 1026,7 hPa 0,0 l/m 0 min 0 min 0,0 UV-I 90 W/m 10,3 km/h (2 Bft)
15.12.2013 14:02 8,1 C 7,2 C 88 % 1026,7 hPa 0,0 l/m 0 min 0 min 0,0 UV-I 95 W/m 15,4 km/h (3 Bft)
15.12.2013 14:04 8,1 C 7,2 C 88 % 1026,7 hPa 0,0 l/m 0 min 0 min 0,0 UV-I 90 W/m 12,9 km/h (3 Bft)
15.12.2013 14:06 8,1 C 7,2 C 88 % 1026,7 hPa 0,0 l/m 0 min 0 min 0,0 UV-I 90 W/m 5,1 km/h (1 Bft)
15.12.2013 14:08 8,2 C 7,2 C 88 % 1026,7 hPa 0,0 l/m 0 min 0 min 0,0 UV-I 90 W/m 5,1 km/h (1 Bft)
15.12.2013 14:10 8,2 C 7,2 C 88 % 1026,7 hPa 0,0 l/m 0 min 0 min 0,0 UV-I 93 W/m 0,0 km/h (0 Bft)
15.12.2013 14:12 8,2 C 7,2 C 88 % 1026,7 hPa 0,0 l/m 0 min 0 min 0,0 UV-I 97 W/m 18,0 km/h (3 Bft)
15.12.2013 14:14 8,2 C 7,2 C 88 % 1026,7 hPa 0,0 l/m 0 min 0 min 0,0 UV-I 104 W/m 15,4 km/h (3 Bft)
15.12.2013 14:16 8,3 C 7,2 C 88 % 1026,7 hPa 0,0 l/m 0 min 0 min 0,0 UV-I 91 W/m 18,0 km/h (3 Bft)
15.12.2013 14:18 8,3 C 7,2 C 87 % 1026,7 hPa 0,0 l/m 0 min 0 min 0,0 UV-I 84 W/m 12,9 km/h (3 Bft)
15.12.2013 14:20 8,3 C 7,2 C 87 % 1026,7 hPa 0,0 l/m 0 min 0 min 0,0 UV-I 83 W/m 12,9 km/h (3 Bft)
15.12.2013 14:22 8,2 C 7,2 C 87 % 1026,7 hPa 0,0 l/m 0 min 0 min 0,0 UV-I 88 W/m 12,9 km/h (3 Bft)
15.12.2013 14:24 8,3 C 7,2 C 87 % 1026,8 hPa 0,0 l/m 0 min 0 min 0,0 UV-I 86 W/m 2,6 km/h (1 Bft)
15.12.2013 14:26 8,3 C 7,2 C 87 % 1026,8 hPa 0,0 l/m 0 min 0 min 0,0 UV-I 77 W/m 10,3 km/h (2 Bft)
15.12.2013 14:28 8,2 C 7,2 C 87 % 1026,7 hPa 0,0 l/m 0 min 0 min 0,0 UV-I 77 W/m 10,3 km/h (2 Bft)
15.12.2013 14:30 8,2 C 7,2 C 87 % 1026,7 hPa 0,0 l/m 0 min 0 min 0,0 UV-I 74 W/m 18,0 km/h (3 Bft)
15.12.2013 14:32 8,2 C 7,2 C 87 % 1026,7 hPa 0,0 l/m 0 min 0 min 0,0 UV-I 79 W/m 15,4 km/h (3 Bft)
15.12.2013 14:34 8,2 C 7,2 C 87 % 1026,7 hPa 0,0 l/m 0 min 0 min 0,0 UV-I 81 W/m 7,7 km/h (2 Bft)
15.12.2013 14:36 8,2 C 7,2 C 87 % 1026,7 hPa 0,0 l/m 0 min 0 min 0,0 UV-I 76 W/m 0,0 km/h (0 Bft)
15.12.2013 14:38 8,2 C 7,2 C 87 % 1026,6 hPa 0,0 l/m 0 min 0 min 0,0 UV-I 70 W/m 7,7 km/h (2 Bft)
15.12.2013 14:40 8,2 C 7,2 C 87 % 1026,4 hPa 0,0 l/m 0 min 0 min 0,0 UV-I 60 W/m 7,7 km/h (2 Bft)
15.12.2013 14:42 8,2 C 7,2 C 87 % 1026,5 hPa 0,0 l/m 0 min 0 min 0,0 UV-I 51 W/m 5,1 km/h (1 Bft)
15.12.2013 14:44 8,2 C 6,7 C 87 % 1026,4 hPa 0,0 l/m 0 min 0 min 0,0 UV-I 63 W/m 18,0 km/h (3 Bft)
15.12.2013 14:46 8,2 C 6,7 C 87 % 1026,5 hPa 0,0 l/m 0 min 0 min 0,0 UV-I 58 W/m 0,0 km/h (0 Bft)
15.12.2013 14:48 8,2 C 6,7 C 87 % 1026,7 hPa 0,0 l/m 0 min 0 min 0,0 UV-I 56 W/m 0,0 km/h (0 Bft)
15.12.2013 14:50 8,1 C 6,7 C 88 % 1026,6 hPa 0,0 l/m 0 min 0 min 0,0 UV-I 49 W/m 10,3 km/h (2 Bft)
15.12.2013 14:52 8,1 C 6,7 C 88 % 1026,6 hPa 0,0 l/m 0 min 0 min 0,0 UV-I 47 W/m 2,6 km/h (1 Bft)
15.12.2013 14:54 8,1 C 6,7 C 87 % 1026,7 hPa 0,0 l/m 0 min 0 min 0,0 UV-I 42 W/m 2,6 km/h (1 Bft)
15.12.2013 14:56 8,1 C 6,7 C 87 % 1026,4 hPa 0,0 l/m 0 min 0 min 0,0 UV-I 47 W/m 0,0 km/h (0 Bft)
15.12.2013 14:58 8,2 C 6,7 C 87 % 1026,4 hPa 0,0 l/m 0 min 0 min 0,0 UV-I 42 W/m 0,0 km/h (0 Bft)
15.12.2013 15:00 8,2 C 6,7 C 87 % 1026,4 hPa 0,0 l/m 0 min 0 min 0,0 UV-I 42 W/m 7,7 km/h (2 Bft)
15.12.2013 15:02 8,2 C 7,2 C 87 % 1026,4 hPa 0,0 l/m 0 min 0 min 0,0 UV-I 46 W/m 5,1 km/h (1 Bft)
15.12.2013 15:06 8,2 C 7,2 C 87 % 1026,4 hPa 0,0 l/m 0 min 0 min 0,0 UV-I 46 W/m 7,7 km/h (2 Bft)
15.12.2013 15:08 8,2 C 7,2 C 88 % 1026,3 hPa 0,0 l/m 0 min 0 min 0,0 UV-I 44 W/m 5,1 km/h (1 Bft)
15.12.2013 15:10 8,3 C 7,2 C 88 % 1026,3 hPa 0,0 l/m 0 min 0 min 0,0 UV-I 44 W/m 10,3 km/h (2 Bft)
15.12.2013 15:12 8,3 C 7,2 C 88 % 1026,3 hPa 0,0 l/m 0 min 0 min 0,0 UV-I 42 W/m 0,0 km/h (0 Bft)
15.12.2013 15:14 8,3 C 7,2 C 88 % 1026,3 hPa 0,0 l/m 0 min 0 min 0,0 UV-I 46 W/m 10,3 km/h (2 Bft)
15.12.2013 15:16 8,3 C 7,2 C 88 % 1026,3 hPa 0,0 l/m 0 min 0 min 0,0 UV-I 47 W/m 5,1 km/h (1 Bft)
15.12.2013 15:18 8,3 C 7,2 C 88 % 1026,3 hPa 0,0 l/m 0 min 0 min 0,0 UV-I 46 W/m 5,1 km/h (1 Bft)
15.12.2013 15:20 8,3 C 7,2 C 88 % 1026,2 hPa 0,0 l/m 0 min 0 min 0,0 UV-I 40 W/m 5,1 km/h (1 Bft)
15.12.2013 15:22 8,3 C 7,2 C 88 % 1026,2 hPa 0,0 l/m 0 min 0 min 0,0 UV-I 39 W/m 5,1 km/h (1 Bft)
15.12.2013 15:24 8,4 C 7,2 C 88 % 1026,2 hPa 0,0 l/m 0 min 0 min 0,0 UV-I 37 W/m 2,6 km/h (1 Bft)
15.12.2013 15:26 8,4 C 7,2 C 88 % 1026,2 hPa 0,0 l/m 0 min 0 min 0,0 UV-I 37 W/m 2,6 km/h (1 Bft)
15.12.2013 15:28 8,4 C 7,2 C 88 % 1026,2 hPa 0,0 l/m 0 min 0 min 0,0 UV-I 37 W/m 7,7 km/h (2 Bft)
15.12.2013 15:30 8,4 C 7,2 C 88 % 1026,2 hPa 0,0 l/m 0 min 0 min 0,0 UV-I 33 W/m 5,1 km/h (1 Bft)
15.12.2013 15:32 8,4 C 7,2 C 88 % 1026,1 hPa 0,0 l/m 0 min 0 min 0,0 UV-I 26 W/m 5,1 km/h (1 Bft)
15.12.2013 15:34 8,4 C 7,2 C 88 % 1026,1 hPa 0,0 l/m 0 min 0 min 0,0 UV-I 26 W/m 0,0 km/h (0 Bft)
15.12.2013 15:36 8,4 C 7,2 C 88 % 1026,1 hPa 0,0 l/m 0 min 0 min 0,0 UV-I 25 W/m 5,1 km/h (1 Bft)
15.12.2013 15:38 8,4 C 7,2 C 88 % 1026,1 hPa 0,0 l/m 0 min 0 min 0,0 UV-I 23 W/m 0,0 km/h (0 Bft)
15.12.2013 15:40 8,4 C 7,2 C 88 % 1026,1 hPa 0,0 l/m 0 min 0 min 0,0 UV-I 23 W/m 7,7 km/h (2 Bft)
15.12.2013 15:42 8,4 C 7,2 C 88 % 1026,1 hPa 0,0 l/m 0 min 0 min 0,0 UV-I 21 W/m 0,0 km/h (0 Bft)
15.12.2013 15:44 8,4 C 6,7 C 88 % 1026,1 hPa 0,0 l/m 0 min 0 min 0,0 UV-I 23 W/m 2,6 km/h (1 Bft)
15.12.2013 15:46 8,4 C 7,2 C 88 % 1026,1 hPa 0,0 l/m 0 min 0 min 0,0 UV-I 23 W/m 0,0 km/h (0 Bft)
15.12.2013 15:48 8,4 C 7,2 C 88 % 1026,1 hPa 0,0 l/m 0 min 0 min 0,0 UV-I 21 W/m 2,6 km/h (1 Bft)
15.12.2013 15:50 8,4 C 7,2 C 88 % 1026,1 hPa 0,0 l/m 0 min 0 min 0,0 UV-I 21 W/m 0,0 km/h (0 Bft)
15.12.2013 15:52 8,4 C 6,7 C 88 % 1026,1 hPa 0,0 l/m 0 min 0 min 0,0 UV-I 19 W/m 0,0 km/h (0 Bft)
15.12.2013 15:54 8,4 C 7,2 C 88 % 1026,1 hPa 0,0 l/m 0 min 0 min 0,0 UV-I 18 W/m 10,3 km/h (2 Bft)
15.12.2013 15:56 8,4 C 6,7 C 88 % 1026,2 hPa 0,0 l/m 0 min 0 min 0,0 UV-I 16 W/m 0,0 km/h (0 Bft)
15.12.2013 15:58 8,4 C 6,7 C 88 % 1026,2 hPa 0,0 l/m 0 min 0 min 0,0 UV-I 14 W/m 0,0 km/h (0 Bft)
15.12.2013 16:00 8,4 C 6,7 C 88 % 1026,2 hPa 0,0 l/m 0 min 0 min 0,0 UV-I 11 W/m 0,0 km/h (0 Bft)
15.12.2013 16:02 8,4 C 6,7 C 88 % 1026,2 hPa 0,0 l/m 0 min 0 min 0,0 UV-I 9 W/m 0,0 km/h (0 Bft)
15.12.2013 16:04 8,4 C 6,7 C 88 % 1026,3 hPa 0,0 l/m 0 min 0 min 0,0 UV-I 9 W/m 0,0 km/h (0 Bft)
15.12.2013 16:06 8,4 C 6,7 C 88 % 1026,3 hPa 0,0 l/m 0 min 0 min 0,0 UV-I 9 W/m 0,0 km/h (0 Bft)
15.12.2013 16:08 8,4 C 6,7 C 88 % 1026,3 hPa 0,0 l/m 0 min 0 min 0,0 UV-I 9 W/m 0,0 km/h (0 Bft)
15.12.2013 16:10 8,4 C 6,7 C 88 % 1026,3 hPa 0,0 l/m 0 min 0 min 0,0 UV-I 9 W/m 0,0 km/h (0 Bft)
15.12.2013 16:12 8,4 C 6,7 C 89 % 1026,2 hPa 0,0 l/m 0 min 0 min 0,0 UV-I 5 W/m 0,0 km/h (0 Bft)
15.12.2013 16:14 8,4 C 6,7 C 89 % 1026,2 hPa 0,0 l/m 0 min 0 min 0,0 UV-I 5 W/m 0,0 km/h (0 Bft)
15.12.2013 16:16 8,4 C 6,7 C 89 % 1026,3 hPa 0,0 l/m 0 min 0 min 0,0 UV-I 5 W/m 7,7 km/h (2 Bft)
15.12.2013 16:18 8,4 C 6,7 C 89 % 1026,3 hPa 0,0 l/m 0 min 0 min 0,0 UV-I 5 W/m 10,3 km/h (2 Bft)
15.12.2013 16:20 8,4 C 6,7 C 89 % 1026,3 hPa 0,0 l/m 0 min 0 min 0,0 UV-I 5 W/m 0,0 km/h (0 Bft)
15.12.2013 16:22 8,4 C 6,7 C 89 % 1026,3 hPa 0,0 l/m 0 min 0 min 0,0 UV-I 5 W/m 5,1 km/h (1 Bft)
15.12.2013 16:24 8,4 C 6,7 C 89 % 1026,3 hPa 0,0 l/m 0 min 0 min 0,0 UV-I 0 W/m 5,1 km/h (1 Bft)
15.12.2013 16:26 8,4 C 6,7 C 89 % 1026,4 hPa 0,0 l/m 0 min 0 min 0,0 UV-I 0 W/m 0,0 km/h (0 Bft)
15.12.2013 16:28 8,4 C 6,7 C 89 % 1026,3 hPa 0,0 l/m 0 min 0 min 0,0 UV-I 0 W/m 0,0 km/h (0 Bft)
15.12.2013 16:30 8,4 C 6,7 C 89 % 1026,4 hPa 0,0 l/m 0 min 0 min 0,0 UV-I 0 W/m 0,0 km/h (0 Bft)
15.12.2013 16:32 8,4 C 6,7 C 89 % 1026,4 hPa 0,0 l/m 0 min 0 min 0,0 UV-I 0 W/m 0,0 km/h (0 Bft)
15.12.2013 16:34 8,4 C 6,7 C 89 % 1026,3 hPa 0,0 l/m 0 min 0 min 0,0 UV-I 0 W/m 0,0 km/h (0 Bft)
15.12.2013 16:36 8,4 C 6,7 C 89 % 1026,2 hPa 0,0 l/m 0 min 0 min 0,0 UV-I 0 W/m 0,0 km/h (0 Bft)
15.12.2013 16:38 8,4 C 6,7 C 89 % 1026,3 hPa 0,0 l/m 0 min 0 min 0,0 UV-I 0 W/m 0,0 km/h (0 Bft)
15.12.2013 16:40 8,4 C 6,7 C 89 % 1026,3 hPa 0,0 l/m 0 min 0 min 0,0 UV-I 0 W/m 2,6 km/h (1 Bft)
15.12.2013 16:42 8,4 C 6,7 C 89 % 1026,3 hPa 0,0 l/m 0 min 0 min 0,0 UV-I 0 W/m 0,0 km/h (0 Bft)
15.12.2013 16:44 8,4 C 6,7 C 89 % 1026,3 hPa 0,0 l/m 0 min 0 min 0,0 UV-I 0 W/m 0,0 km/h (0 Bft)
15.12.2013 16:46 8,4 C 6,7 C 89 % 1026,3 hPa 0,0 l/m 0 min 0 min 0,0 UV-I 0 W/m 0,0 km/h (0 Bft)
15.12.2013 16:48 8,4 C 6,7 C 89 % 1026,3 hPa 0,0 l/m 0 min 0 min 0,0 UV-I 0 W/m 0,0 km/h (0 Bft)
15.12.2013 16:50 8,4 C 6,7 C 89 % 1026,3 hPa 0,0 l/m 0 min 0 min 0,0 UV-I 0 W/m 0,0 km/h (0 Bft)
15.12.2013 16:52 8,4 C 6,7 C 89 % 1026,3 hPa 0,0 l/m 0 min 0 min 0,0 UV-I 0 W/m 7,7 km/h (2 Bft)
15.12.2013 16:54 8,4 C 6,7 C 89 % 1026,2 hPa 0,0 l/m 0 min 0 min 0,0 UV-I 0 W/m 0,0 km/h (0 Bft)
15.12.2013 16:56 8,4 C 6,7 C 89 % 1026,2 hPa 0,0 l/m 0 min 0 min 0,0 UV-I 0 W/m 7,7 km/h (2 Bft)
15.12.2013 16:58 8,4 C 6,7 C 89 % 1026,2 hPa 0,0 l/m 0 min 0 min 0,0 UV-I 0 W/m 5,1 km/h (1 Bft)
15.12.2013 17:00 8,4 C 6,7 C 89 % 1026,1 hPa 0,0 l/m 0 min 0 min 0,0 UV-I 0 W/m 5,1 km/h (1 Bft)
15.12.2013 17:02 8,4 C 6,7 C 89 % 1026,2 hPa 0,0 l/m 0 min 0 min 0,0 UV-I 0 W/m 0,0 km/h (0 Bft)
15.12.2013 17:04 8,4 C 6,7 C 89 % 1026,1 hPa 0,0 l/m 0 min 0 min 0,0 UV-I 0 W/m 0,0 km/h (0 Bft)
15.12.2013 17:06 8,4 C 6,7 C 89 % 1026,2 hPa 0,0 l/m 0 min 0 min 0,0 UV-I 0 W/m 10,3 km/h (2 Bft)
15.12.2013 17:08 8,4 C 6,7 C 89 % 1026,2 hPa 0,0 l/m 0 min 0 min 0,0 UV-I 0 W/m 10,3 km/h (2 Bft)
15.12.2013 17:10 8,4 C 6,7 C 89 % 1026,1 hPa 0,0 l/m 0 min 0 min 0,0 UV-I 0 W/m 5,1 km/h (1 Bft)
15.12.2013 17:12 8,4 C 6,7 C 89 % 1026,2 hPa 0,0 l/m 0 min 0 min 0,0 UV-I 0 W/m 10,3 km/h (2 Bft)
15.12.2013 17:14 8,4 C 6,7 C 89 % 1026,2 hPa 0,0 l/m 0 min 0 min 0,0 UV-I 0 W/m 7,7 km/h (2 Bft)
15.12.2013 17:16 8,4 C 6,7 C 89 % 1026,1 hPa 0,0 l/m 0 min 0 min 0,0 UV-I 0 W/m 2,6 km/h (1 Bft)
15.12.2013 17:18 8,4 C 6,7 C 89 % 1026,2 hPa 0,0 l/m 0 min 0 min 0,0 UV-I 0 W/m 7,7 km/h (2 Bft)
15.12.2013 17:20 8,4 C 6,7 C 89 % 1026,1 hPa 0,0 l/m 0 min 0 min 0,0 UV-I 0 W/m 10,3 km/h (2 Bft)
15.12.2013 17:22 8,4 C 6,7 C 89 % 1026,3 hPa 0,0 l/m 0 min 0 min 0,0 UV-I 0 W/m 10,3 km/h (2 Bft)
15.12.2013 17:24 8,4 C 6,7 C 89 % 1026,2 hPa 0,0 l/m 0 min 0 min 0,0 UV-I 0 W/m 5,1 km/h (1 Bft)
15.12.2013 17:26 8,4 C 6,7 C 89 % 1026,2 hPa 0,0 l/m 0 min 0 min 0,0 UV-I 0 W/m 7,7 km/h (2 Bft)
15.12.2013 17:28 8,4 C 6,7 C 89 % 1026,3 hPa 0,0 l/m 0 min 0 min 0,0 UV-I 0 W/m 5,1 km/h (1 Bft)
15.12.2013 17:30 8,4 C 7,2 C 89 % 1026,3 hPa 0,0 l/m 0 min 0 min 0,0 UV-I 0 W/m 7,7 km/h (2 Bft)
15.12.2013 17:32 8,4 C 7,2 C 89 % 1026,3 hPa 0,0 l/m 0 min 0 min 0,0 UV-I 0 W/m 10,3 km/h (2 Bft)
15.12.2013 17:34 8,4 C 7,2 C 89 % 1026,2 hPa 0,0 l/m 0 min 0 min 0,0 UV-I 0 W/m 15,4 km/h (3 Bft)
15.12.2013 17:36 8,4 C 7,2 C 89 % 1026,2 hPa 0,0 l/m 0 min 0 min 0,0 UV-I 0 W/m 12,9 km/h (3 Bft)
15.12.2013 17:38 8,4 C 7,2 C 89 % 1026,2 hPa 0,0 l/m 0 min 0 min 0,0 UV-I 0 W/m 10,3 km/h (2 Bft)
15.12.2013 17:40 8,4 C 7,2 C 89 % 1026,2 hPa 0,0 l/m 0 min 0 min 0,0 UV-I 0 W/m 15,4 km/h (3 Bft)
15.12.2013 17:42 8,4 C 7,2 C 89 % 1026,2 hPa 0,0 l/m 0 min 0 min 0,0 UV-I 0 W/m 12,9 km/h (3 Bft)
15.12.2013 17:44 8,4 C 7,2 C 89 % 1026,2 hPa 0,0 l/m 0 min 0 min 0,0 UV-I 0 W/m 18,0 km/h (3 Bft)
15.12.2013 17:46 8,4 C 7,2 C 89 % 1026,2 hPa 0,0 l/m 0 min 0 min 0,0 UV-I 0 W/m 15,4 km/h (3 Bft)
15.12.2013 17:48 8,5 C 7,2 C 89 % 1026,2 hPa 0,0 l/m 0 min 0 min 0,0 UV-I 0 W/m 23,2 km/h (4 Bft)
15.12.2013 17:50 8,5 C 7,2 C 88 % 1026,2 hPa 0,0 l/m 0 min 0 min 0,0 UV-I 0 W/m 18,0 km/h (3 Bft)
15.12.2013 17:52 8,5 C 7,2 C 88 % 1026,1 hPa 0,0 l/m 0 min 0 min 0,0 UV-I 0 W/m 18,0 km/h (3 Bft)
15.12.2013 17:54 8,5 C 7,2 C 88 % 1026,1 hPa 0,0 l/m 0 min 0 min 0,0 UV-I 0 W/m 12,9 km/h (3 Bft)
15.12.2013 17:56 8,5 C 7,2 C 88 % 1026,1 hPa 0,0 l/m 0 min 0 min 0,0 UV-I 0 W/m 18,0 km/h (3 Bft)
15.12.2013 17:58 8,5 C 7,2 C 88 % 1026,1 hPa 0,0 l/m 0 min 0 min 0,0 UV-I 0 W/m 10,3 km/h (2 Bft)
15.12.2013 18:00 8,5 C 7,2 C 87 % 1026,1 hPa 0,0 l/m 0 min 0 min 0,0 UV-I 0 W/m 15,4 km/h (3 Bft)
15.12.2013 18:02 8,5 C 7,2 C 87 % 1026,1 hPa 0,0 l/m 0 min 0 min 0,0 UV-I 0 W/m 10,3 km/h (2 Bft)
15.12.2013 18:04 8,6 C 7,2 C 87 % 1026,2 hPa 0,0 l/m 0 min 0 min 0,0 UV-I 0 W/m 18,0 km/h (3 Bft)
15.12.2013 18:06 8,5 C 7,2 C 86 % 1026,1 hPa 0,0 l/m 0 min 0 min 0,0 UV-I 0 W/m 15,4 km/h (3 Bft)
15.12.2013 18:08 8,5 C 7,2 C 86 % 1026,1 hPa 0,0 l/m 0 min 0 min 0,0 UV-I 0 W/m 18,0 km/h (3 Bft)
15.12.2013 18:10 8,6 C 7,2 C 86 % 1026,0 hPa 0,0 l/m 0 min 0 min 0,0 UV-I 0 W/m 15,4 km/h (3 Bft)
15.12.2013 18:12 8,6 C 7,2 C 85 % 1025,9 hPa 0,0 l/m 0 min 0 min 0,0 UV-I 0 W/m 15,4 km/h (3 Bft)
15.12.2013 18:14 8,6 C 7,2 C 85 % 1025,8 hPa 0,0 l/m 0 min 0 min 0,0 UV-I 0 W/m 18,0 km/h (3 Bft)
15.12.2013 18:16 8,6 C 7,2 C 85 % 1025,9 hPa 0,0 l/m 0 min 0 min 0,0 UV-I 0 W/m 15,4 km/h (3 Bft)
15.12.2013 18:18 8,6 C 6,7 C 84 % 1025,9 hPa 0,0 l/m 0 min 0 min 0,0 UV-I 0 W/m 10,3 km/h (2 Bft)
15.12.2013 18:20 8,6 C 6,7 C 84 % 1025,9 hPa 0,0 l/m 0 min 0 min 0,0 UV-I 0 W/m 12,9 km/h (3 Bft)
15.12.2013 18:22 8,5 C 6,7 C 84 % 1025,9 hPa 0,0 l/m 0 min 0 min 0,0 UV-I 0 W/m 12,9 km/h (3 Bft)
15.12.2013 18:24 8,5 C 6,7 C 84 % 1025,9 hPa 0,0 l/m 0 min 0 min 0,0 UV-I 0 W/m 20,6 km/h (4 Bft)
15.12.2013 18:26 8,5 C 6,7 C 84 % 1025,8 hPa 0,0 l/m 0 min 0 min 0,0 UV-I 0 W/m 12,9 km/h (3 Bft)
15.12.2013 18:28 8,4 C 6,7 C 83 % 1025,8 hPa 0,0 l/m 0 min 0 min 0,0 UV-I 0 W/m 23,2 km/h (4 Bft)
15.12.2013 18:30 8,4 C 6,1 C 83 % 1025,8 hPa 0,0 l/m 0 min 0 min 0,0 UV-I 0 W/m 12,9 km/h (3 Bft)
15.12.2013 18:32 8,4 C 6,1 C 83 % 1025,7 hPa 0,0 l/m 0 min 0 min 0,0 UV-I 0 W/m 15,4 km/h (3 Bft)
15.12.2013 18:34 8,4 C 6,1 C 83 % 1025,9 hPa 0,0 l/m 0 min 0 min 0,0 UV-I 0 W/m 10,3 km/h (2 Bft)
15.12.2013 18:36 8,3 C 6,1 C 83 % 1025,8 hPa 0,0 l/m 0 min 0 min 0,0 UV-I 0 W/m 12,9 km/h (3 Bft)
15.12.2013 18:38 8,3 C 6,1 C 83 % 1025,7 hPa 0,0 l/m 0 min 0 min 0,0 UV-I 0 W/m 12,9 km/h (3 Bft)
15.12.2013 18:40 8,3 C 6,1 C 82 % 1025,7 hPa 0,0 l/m 0 min 0 min 0,0 UV-I 0 W/m 15,4 km/h (3 Bft)
15.12.2013 18:42 8,2 C 6,1 C 82 % 1025,8 hPa 0,0 l/m 0 min 0 min 0,0 UV-I 0 W/m 15,4 km/h (3 Bft)
15.12.2013 18:44 8,2 C 6,1 C 82 % 1025,7 hPa 0,0 l/m 0 min 0 min 0,0 UV-I 0 W/m 23,2 km/h (4 Bft)
15.12.2013 18:46 8,2 C 5,6 C 86 % 1025,7 hPa 0,0 l/m 0 min 0 min 0,0 UV-I 0 W/m 10,3 km/h (2 Bft)
15.12.2013 18:48 8,1 C 5,6 C 82 % 1025,7 hPa 0,0 l/m 0 min 0 min 0,0 UV-I 0 W/m 18,0 km/h (3 Bft)
15.12.2013 18:50 8,1 C 5,6 C 82 % 1025,7 hPa 0,0 l/m 0 min 0 min 0,0 UV-I 0 W/m 12,9 km/h (3 Bft)
15.12.2013 18:52 8,1 C 5,6 C 82 % 1025,6 hPa 0,0 l/m 0 min 0 min 0,0 UV-I 0 W/m 10,3 km/h (2 Bft)
15.12.2013 18:55 8,0 C 5,6 C 82 % 1025,7 hPa 0,0 l/m 0 min 0 min 0,0 UV-I 0 W/m 10,3 km/h (2 Bft)
15.12.2013 19:00 7,9 C 5,6 C 82 % 1025,6 hPa 0,0 l/m 0 min 0 min 0,0 UV-I 0 W/m 12,9 km/h (3 Bft)
15.12.2013 19:05 7,8 C 5,0 C 82 % 1025,8 hPa 0,0 l/m 0 min 0 min 0,0 UV-I 0 W/m 18,0 km/h (3 Bft)
15.12.2013 19:10 7,7 C 5,0 C 82 % 1025,8 hPa 0,0 l/m 0 min 0 min 0,0 UV-I 0 W/m 10,3 km/h (2 Bft)
15.12.2013 19:15 7,6 C 5,0 C 83 % 1025,8 hPa 0,0 l/m 0 min 0 min 0,0 UV-I 0 W/m 10,3 km/h (2 Bft)
15.12.2013 19:20 7,4 C 5,0 C 83 % 1025,9 hPa 0,0 l/m 0 min 0 min 0,0 UV-I 0 W/m 12,9 km/h (3 Bft)
15.12.2013 19:25 7,3 C 5,0 C 83 % 1025,9 hPa 0,0 l/m 0 min 0 min 0,0 UV-I 0 W/m 12,9 km/h (3 Bft)
15.12.2013 19:30 7,2 C 4,4 C 83 % 1025,9 hPa 0,0 l/m 0 min 0 min 0,0 UV-I 0 W/m 18,0 km/h (3 Bft)
15.12.2013 19:36 6,9 C 4,4 C 84 % 1025,9 hPa 0,0 l/m 0 min 0 min 0,0 UV-I 0 W/m 12,9 km/h (3 Bft)
15.12.2013 19:38 6,9 C 4,4 C 84 % 1025,9 hPa 0,0 l/m 0 min 0 min 0,0 UV-I 0 W/m 18,0 km/h (3 Bft)
15.12.2013 19:40 6,8 C 4,4 C 84 % 1026,0 hPa 0,0 l/m 0 min 0 min 0,0 UV-I 0 W/m 12,9 km/h (3 Bft)
15.12.2013 19:42 6,8 C 4,4 C 84 % 1025,9 hPa 0,0 l/m 0 min 0 min 0,0 UV-I 0 W/m 10,3 km/h (2 Bft)
15.12.2013 19:44 6,7 C 4,4 C 84 % 1025,9 hPa 0,0 l/m 0 min 0 min 0,0 UV-I 0 W/m 12,9 km/h (3 Bft)
15.12.2013 19:46 6,7 C 4,4 C 84 % 1025,9 hPa 0,0 l/m 0 min 0 min 0,0 UV-I 0 W/m 12,9 km/h (3 Bft)
15.12.2013 19:48 6,6 C 4,4 C 84 % 1025,9 hPa 0,0 l/m 0 min 0 min 0,0 UV-I 0 W/m 12,9 km/h (3 Bft)
15.12.2013 19:50 6,6 C 4,4 C 84 % 1025,9 hPa 0,0 l/m 0 min 0 min 0,0 UV-I 0 W/m 12,9 km/h (3 Bft)
15.12.2013 19:52 6,5 C 4,4 C 84 % 1026,0 hPa 0,0 l/m 0 min 0 min 0,0 UV-I 0 W/m 12,9 km/h (3 Bft)
15.12.2013 19:54 6,4 C 3,9 C 84 % 1026,0 hPa 0,0 l/m 0 min 0 min 0,0 UV-I 0 W/m 7,7 km/h (2 Bft)
15.12.2013 19:56 6,4 C 3,9 C 84 % 1026,1 hPa 0,0 l/m 0 min 0 min 0,0 UV-I 0 W/m 10,3 km/h (2 Bft)
15.12.2013 19:58 6,4 C 3,9 C 84 % 1026,0 hPa 0,0 l/m 0 min 0 min 0,0 UV-I 0 W/m 12,9 km/h (3 Bft)
15.12.2013 20:00 6,3 C 3,9 C 84 % 1026,0 hPa 0,0 l/m 0 min 0 min 0,0 UV-I 0 W/m 12,9 km/h (3 Bft)
15.12.2013 20:02 6,3 C 3,9 C 84 % 1026,0 hPa 0,0 l/m 0 min 0 min 0,0 UV-I 0 W/m 15,4 km/h (3 Bft)
15.12.2013 20:04 6,2 C 3,9 C 84 % 1026,0 hPa 0,0 l/m 0 min 0 min 0,0 UV-I 0 W/m 20,6 km/h (4 Bft)
15.12.2013 20:06 6,2 C 3,9 C 84 % 1026,0 hPa 0,0 l/m 0 min 0 min 0,0 UV-I 0 W/m 18,0 km/h (3 Bft)
15.12.2013 20:08 6,2 C 3,9 C 84 % 1026,0 hPa 0,0 l/m 0 min 0 min 0,0 UV-I 0 W/m 10,3 km/h (2 Bft)
15.12.2013 20:10 6,1 C 3,9 C 84 % 1025,9 hPa 0,0 l/m 0 min 0 min 0,0 UV-I 0 W/m 15,4 km/h (3 Bft)
15.12.2013 20:12 6,1 C 3,9 C 84 % 1025,9 hPa 0,0 l/m 0 min 0 min 0,0 UV-I 0 W/m 18,0 km/h (3 Bft)
15.12.2013 20:14 6,1 C 3,9 C 84 % 1025,9 hPa 0,0 l/m 0 min 0 min 0,0 UV-I 0 W/m 10,3 km/h (2 Bft)
15.12.2013 20:16 6,0 C 3,9 C 84 % 1025,9 hPa 0,0 l/m 0 min 0 min 0,0 UV-I 0 W/m 18,0 km/h (3 Bft)
15.12.2013 20:18 6,0 C 3,9 C 84 % 1025,8 hPa 0,0 l/m 0 min 0 min 0,0 UV-I 0 W/m 10,3 km/h (2 Bft)
15.12.2013 20:20 5,9 C 3,9 C 84 % 1025,9 hPa 0,0 l/m 0 min 0 min 0,0 UV-I 0 W/m 5,1 km/h (1 Bft)
15.12.2013 20:22 5,9 C 3,9 C 84 % 1025,9 hPa 0,0 l/m 0 min 0 min 0,0 UV-I 0 W/m 18,0 km/h (3 Bft)
15.12.2013 20:24 5,9 C 3,9 C 84 % 1026,0 hPa 0,0 l/m 0 min 0 min 0,0 UV-I 0 W/m 18,0 km/h (3 Bft)
15.12.2013 20:26 5,8 C 3,9 C 84 % 1026,0 hPa 0,0 l/m 0 min 0 min 0,0 UV-I 0 W/m 10,3 km/h (2 Bft)
15.12.2013 20:28 5,8 C 3,9 C 84 % 1026,0 hPa 0,0 l/m 0 min 0 min 0,0 UV-I 0 W/m 12,9 km/h (3 Bft)
15.12.2013 20:30 5,8 C 3,9 C 84 % 1026,0 hPa 0,0 l/m 0 min 0 min 0,0 UV-I 0 W/m 12,9 km/h (3 Bft)
15.12.2013 20:32 5,8 C 3,9 C 84 % 1026,0 hPa 0,0 l/m 0 min 0 min 0,0 UV-I 0 W/m 12,9 km/h (3 Bft)
15.12.2013 20:34 5,8 C 3,9 C 84 % 1026,0 hPa 0,0 l/m 0 min 0 min 0,0 UV-I 0 W/m 15,4 km/h (3 Bft)
15.12.2013 20:36 5,7 C 3,9 C 84 % 1025,9 hPa 0,0 l/m 0 min 0 min 0,0 UV-I 0 W/m 18,0 km/h (3 Bft)
15.12.2013 20:38 5,7 C 3,9 C 84 % 1025,9 hPa 0,0 l/m 0 min 0 min 0,0 UV-I 0 W/m 18,0 km/h (3 Bft)
15.12.2013 20:40 5,7 C 3,9 C 84 % 1025,8 hPa 0,0 l/m 0 min 0 min 0,0 UV-I 0 W/m 18,0 km/h (3 Bft)
15.12.2013 20:42 5,7 C 3,9 C 84 % 1025,8 hPa 0,0 l/m 0 min 0 min 0,0 UV-I 0 W/m 15,4 km/h (3 Bft)
15.12.2013 20:44 5,7 C 3,9 C 84 % 1025,9 hPa 0,0 l/m 0 min 0 min 0,0 UV-I 0 W/m 7,7 km/h (2 Bft)
15.12.2013 20:46 5,7 C 3,9 C 84 % 1025,9 hPa 0,0 l/m 0 min 0 min 0,0 UV-I 0 W/m 7,7 km/h (2 Bft)
15.12.2013 20:48 5,6 C 3,9 C 84 % 1025,9 hPa 0,0 l/m 0 min 0 min 0,0 UV-I 0 W/m 12,9 km/h (3 Bft)
15.12.2013 20:50 5,6 C 3,9 C 85 % 1025,9 hPa 0,0 l/m 0 min 0 min 0,0 UV-I 0 W/m 15,4 km/h (3 Bft)
15.12.2013 20:52 5,6 C 3,9 C 85 % 1026,0 hPa 0,0 l/m 0 min 0 min 0,0 UV-I 0 W/m 7,7 km/h (2 Bft)
15.12.2013 20:54 5,6 C 3,9 C 85 % 1025,9 hPa 0,0 l/m 0 min 0 min 0,0 UV-I 0 W/m 15,4 km/h (3 Bft)
15.12.2013 20:56 5,6 C 3,9 C 85 % 1026,0 hPa 0,0 l/m 0 min 0 min 0,0 UV-I 0 W/m 15,4 km/h (3 Bft)
15.12.2013 20:58 5,6 C 3,9 C 85 % 1025,9 hPa 0,0 l/m 0 min 0 min 0,0 UV-I 0 W/m 18,0 km/h (3 Bft)
15.12.2013 21:00 5,6 C 3,9 C 85 % 1025,9 hPa 0,0 l/m 0 min 0 min 0,0 UV-I 0 W/m 5,1 km/h (1 Bft)
15.12.2013 21:02 5,6 C 3,9 C 85 % 1025,9 hPa 0,0 l/m 0 min 0 min 0,0 UV-I 0 W/m 12,9 km/h (3 Bft)
15.12.2013 21:04 5,6 C 3,9 C 85 % 1025,9 hPa 0,0 l/m 0 min 0 min 0,0 UV-I 0 W/m 10,3 km/h (2 Bft)
15.12.2013 21:06 5,6 C 3,9 C 85 % 1025,9 hPa 0,0 l/m 0 min 0 min 0,0 UV-I 0 W/m 10,3 km/h (2 Bft)
15.12.2013 21:08 5,6 C 3,9 C 85 % 1026,0 hPa 0,0 l/m 0 min 0 min 0,0 UV-I 0 W/m 2,6 km/h (1 Bft)
15.12.2013 21:10 5,6 C 3,9 C 85 % 1025,9 hPa 0,0 l/m 0 min 0 min 0,0 UV-I 0 W/m 10,3 km/h (2 Bft)
15.12.2013 21:12 5,5 C 3,3 C 85 % 1025,9 hPa 0,0 l/m 0 min 0 min 0,0 UV-I 0 W/m 7,7 km/h (2 Bft)
15.12.2013 21:14 5,5 C 3,3 C 85 % 1025,8 hPa 0,0 l/m 0 min 0 min 0,0 UV-I 0 W/m 10,3 km/h (2 Bft)
15.12.2013 21:16 5,5 C 3,3 C 85 % 1025,9 hPa 0,0 l/m 0 min 0 min 0,0 UV-I 0 W/m 15,4 km/h (3 Bft)
15.12.2013 21:18 5,4 C 3,3 C 85 % 1025,9 hPa 0,0 l/m 0 min 0 min 0,0 UV-I 0 W/m 12,9 km/h (3 Bft)
15.12.2013 21:20 5,4 C 3,3 C 85 % 1025,9 hPa 0,0 l/m 0 min 0 min 0,0 UV-I 0 W/m 15,4 km/h (3 Bft)
15.12.2013 21:22 5,4 C 3,3 C 85 % 1025,9 hPa 0,0 l/m 0 min 0 min 0,0 UV-I 0 W/m 10,3 km/h (2 Bft)
15.12.2013 21:24 5,4 C 3,3 C 85 % 1025,9 hPa 0,0 l/m 0 min 0 min 0,0 UV-I 0 W/m 10,3 km/h (2 Bft)
15.12.2013 21:26 5,4 C 3,9 C 85 % 1025,8 hPa 0,0 l/m 0 min 0 min 0,0 UV-I 0 W/m 20,6 km/h (4 Bft)
15.12.2013 21:28 5,4 C 3,9 C 85 % 1025,8 hPa 0,0 l/m 0 min 0 min 0,0 UV-I 0 W/m 18,0 km/h (3 Bft)
15.12.2013 21:30 5,4 C 3,3 C 85 % 1025,8 hPa 0,0 l/m 0 min 0 min 0,0 UV-I 0 W/m 18,0 km/h (3 Bft)
15.12.2013 21:32 5,4 C 3,9 C 85 % 1025,9 hPa 0,0 l/m 0 min 0 min 0,0 UV-I 0 W/m 15,4 km/h (3 Bft)
15.12.2013 21:34 5,3 C 3,3 C 85 % 1025,9 hPa 0,0 l/m 0 min 0 min 0,0 UV-I 0 W/m 15,4 km/h (3 Bft)
15.12.2013 21:36 5,3 C 3,3 C 85 % 1025,8 hPa 0,0 l/m 0 min 0 min 0,0 UV-I 0 W/m 18,0 km/h (3 Bft)
15.12.2013 21:38 5,3 C 3,3 C 85 % 1025,9 hPa 0,0 l/m 0 min 0 min 0,0 UV-I 0 W/m 12,9 km/h (3 Bft)
15.12.2013 21:40 5,3 C 3,3 C 85 % 1025,9 hPa 0,0 l/m 0 min 0 min 0,0 UV-I 0 W/m 15,4 km/h (3 Bft)
15.12.2013 21:42 5,3 C 3,3 C 85 % 1025,9 hPa 0,0 l/m 0 min 0 min 0,0 UV-I 0 W/m 10,3 km/h (2 Bft)
15.12.2013 21:44 5,3 C 3,3 C 85 % 1025,9 hPa 0,0 l/m 0 min 0 min 0,0 UV-I 0 W/m 18,0 km/h (3 Bft)
15.12.2013 21:46 5,3 C 3,3 C 84 % 1025,9 hPa 0,0 l/m 0 min 0 min 0,0 UV-I 0 W/m 7,7 km/h (2 Bft)
15.12.2013 21:48 5,3 C 3,3 C 84 % 1026,0 hPa 0,0 l/m 0 min 0 min 0,0 UV-I 0 W/m 10,3 km/h (2 Bft)
15.12.2013 21:50 5,3 C 3,3 C 84 % 1026,0 hPa 0,0 l/m 0 min 0 min 0,0 UV-I 0 W/m 10,3 km/h (2 Bft)
15.12.2013 21:52 5,3 C 3,3 C 84 % 1025,9 hPa 0,0 l/m 0 min 0 min 0,0 UV-I 0 W/m 10,3 km/h (2 Bft)
15.12.2013 21:54 5,3 C 3,3 C 84 % 1026,0 hPa 0,0 l/m 0 min 0 min 0,0 UV-I 0 W/m 10,3 km/h (2 Bft)
15.12.2013 21:56 5,3 C 3,3 C 84 % 1026,0 hPa 0,0 l/m 0 min 0 min 0,0 UV-I 0 W/m 10,3 km/h (2 Bft)
15.12.2013 21:58 5,2 C 3,3 C 84 % 1026,0 hPa 0,0 l/m 0 min 0 min 0,0 UV-I 0 W/m 12,9 km/h (3 Bft)
15.12.2013 22:00 5,2 C 3,3 C 84 % 1026,0 hPa 0,0 l/m 0 min 0 min 0,0 UV-I 0 W/m 5,1 km/h (1 Bft)
15.12.2013 22:02 5,2 C 3,3 C 84 % 1026,0 hPa 0,0 l/m 0 min 0 min 0,0 UV-I 0 W/m 10,3 km/h (2 Bft)
15.12.2013 22:04 5,2 C 3,3 C 84 % 1026,0 hPa 0,0 l/m 0 min 0 min 0,0 UV-I 0 W/m 10,3 km/h (2 Bft)
15.12.2013 22:06 5,2 C 3,3 C 84 % 1026,0 hPa 0,0 l/m 0 min 0 min 0,0 UV-I 0 W/m 15,4 km/h (3 Bft)
15.12.2013 22:08 5,2 C 3,3 C 84 % 1026,0 hPa 0,0 l/m 0 min 0 min 0,0 UV-I 0 W/m 10,3 km/h (2 Bft)
15.12.2013 22:10 5,2 C 3,3 C 84 % 1025,9 hPa 0,0 l/m 0 min 0 min 0,0 UV-I 0 W/m 12,9 km/h (3 Bft)
15.12.2013 22:12 5,2 C 3,3 C 84 % 1025,9 hPa 0,0 l/m 0 min 0 min 0,0 UV-I 0 W/m 10,3 km/h (2 Bft)
15.12.2013 22:14 5,1 C 3,3 C 84 % 1025,9 hPa 0,0 l/m 0 min 0 min 0,0 UV-I 0 W/m 10,3 km/h (2 Bft)
15.12.2013 22:16 5,1 C 3,3 C 84 % 1025,9 hPa 0,0 l/m 0 min 0 min 0,0 UV-I 0 W/m 10,3 km/h (2 Bft)
15.12.2013 22:18 5,1 C 3,3 C 84 % 1025,8 hPa 0,0 l/m 0 min 0 min 0,0 UV-I 0 W/m 10,3 km/h (2 Bft)
15.12.2013 22:20 5,1 C 3,3 C 84 % 1025,7 hPa 0,0 l/m 0 min 0 min 0,0 UV-I 0 W/m 10,3 km/h (2 Bft)
15.12.2013 22:22 5,1 C 3,3 C 84 % 1025,7 hPa 0,0 l/m 0 min 0 min 0,0 UV-I 0 W/m 12,9 km/h (3 Bft)
15.12.2013 22:24 5,0 C 3,3 C 84 % 1025,7 hPa 0,0 l/m 0 min 0 min 0,0 UV-I 0 W/m 7,7 km/h (2 Bft)
15.12.2013 22:26 5,0 C 2,8 C 84 % 1025,7 hPa 0,0 l/m 0 min 0 min 0,0 UV-I 0 W/m 12,9 km/h (3 Bft)
15.12.2013 22:28 5,0 C 2,8 C 84 % 1025,8 hPa 0,0 l/m 0 min 0 min 0,0 UV-I 0 W/m 12,9 km/h (3 Bft)
15.12.2013 22:30 4,9 C 2,8 C 84 % 1025,7 hPa 0,0 l/m 0 min 0 min 0,0 UV-I 0 W/m 15,4 km/h (3 Bft)
15.12.2013 22:32 4,9 C 2,8 C 84 % 1025,7 hPa 0,0 l/m 0 min 0 min 0,0 UV-I 0 W/m 12,9 km/h (3 Bft)
15.12.2013 22:34 4,9 C 2,8 C 84 % 1025,6 hPa 0,0 l/m 0 min 0 min 0,0 UV-I 0 W/m 10,3 km/h (2 Bft)
15.12.2013 22:36 4,9 C 2,8 C 84 % 1025,6 hPa 0,0 l/m 0 min 0 min 0,0 UV-I 0 W/m 10,3 km/h (2 Bft)
15.12.2013 22:38 4,9 C 2,8 C 84 % 1025,7 hPa 0,0 l/m 0 min 0 min 0,0 UV-I 0 W/m 5,1 km/h (1 Bft)
15.12.2013 22:40 4,8 C 2,8 C 84 % 1025,7 hPa 0,0 l/m 0 min 0 min 0,0 UV-I 0 W/m 15,4 km/h (3 Bft)
15.12.2013 22:42 4,8 C 2,8 C 84 % 1025,9 hPa 0,0 l/m 0 min 0 min 0,0 UV-I 0 W/m 15,4 km/h (3 Bft)
15.12.2013 22:44 4,8 C 2,8 C 84 % 1025,9 hPa 0,0 l/m 0 min 0 min 0,0 UV-I 0 W/m 12,9 km/h (3 Bft)
15.12.2013 22:46 4,8 C 2,8 C 84 % 1025,8 hPa 0,0 l/m 0 min 0 min 0,0 UV-I 0 W/m 12,9 km/h (3 Bft)
15.12.2013 22:48 4,8 C 2,8 C 84 % 1025,6 hPa 0,0 l/m 0 min 0 min 0,0 UV-I 0 W/m 12,9 km/h (3 Bft)
15.12.2013 22:50 4,8 C 2,8 C 84 % 1025,6 hPa 0,0 l/m 0 min 0 min 0,0 UV-I 0 W/m 20,6 km/h (4 Bft)
15.12.2013 22:52 4,7 C 2,8 C 84 % 1025,6 hPa 0,0 l/m 0 min 0 min 0,0 UV-I 0 W/m 10,3 km/h (2 Bft)
15.12.2013 22:54 4,7 C 2,8 C 84 % 1025,6 hPa 0,0 l/m 0 min 0 min 0,0 UV-I 0 W/m 12,9 km/h (3 Bft)
15.12.2013 22:56 4,7 C 2,8 C 84 % 1025,5 hPa 0,0 l/m 0 min 0 min 0,0 UV-I 0 W/m 10,3 km/h (2 Bft)
15.12.2013 22:58 4,7 C 2,8 C 84 % 1025,5 hPa 0,0 l/m 0 min 0 min 0,0 UV-I 0 W/m 10,3 km/h (2 Bft)
15.12.2013 23:00 4,7 C 2,8 C 84 % 1025,5 hPa 0,0 l/m 0 min 0 min 0,0 UV-I 0 W/m 7,7 km/h (2 Bft)
15.12.2013 23:02 4,7 C 2,8 C 84 % 1025,5 hPa 0,0 l/m 0 min 0 min 0,0 UV-I 0 W/m 5,1 km/h (1 Bft)
15.12.2013 23:04 4,7 C 2,8 C 84 % 1025,6 hPa 0,0 l/m 0 min 0 min 0,0 UV-I 0 W/m 10,3 km/h (2 Bft)
15.12.2013 23:06 4,7 C 2,8 C 84 % 1025,6 hPa 0,0 l/m 0 min 0 min 0,0 UV-I 0 W/m 10,3 km/h (2 Bft)
15.12.2013 23:08 4,6 C 2,8 C 84 % 1025,5 hPa 0,0 l/m 0 min 0 min 0,0 UV-I 0 W/m 12,9 km/h (3 Bft)
15.12.2013 23:10 4,6 C 2,8 C 84 % 1025,5 hPa 0,0 l/m 0 min 0 min 0,0 UV-I 0 W/m 15,4 km/h (3 Bft)
15.12.2013 23:12 4,6 C 2,8 C 84 % 1025,6 hPa 0,0 l/m 0 min 0 min 0,0 UV-I 0 W/m 12,9 km/h (3 Bft)
15.12.2013 23:14 4,6 C 2,8 C 84 % 1025,5 hPa 0,0 l/m 0 min 0 min 0,0 UV-I 0 W/m 12,9 km/h (3 Bft)
15.12.2013 23:16 4,6 C 2,8 C 84 % 1025,5 hPa 0,0 l/m 0 min 0 min 0,0 UV-I 0 W/m 7,7 km/h (2 Bft)
15.12.2013 23:18 4,6 C 2,8 C 84 % 1025,5 hPa 0,0 l/m 0 min 0 min 0,0 UV-I 0 W/m 7,7 km/h (2 Bft)
15.12.2013 23:20 4,6 C 2,8 C 84 % 1025,5 hPa 0,0 l/m 0 min 0 min 0,0 UV-I 0 W/m 12,9 km/h (3 Bft)
15.12.2013 23:22 4,6 C 2,8 C 84 % 1025,5 hPa 0,0 l/m 0 min 0 min 0,0 UV-I 0 W/m 12,9 km/h (3 Bft)
15.12.2013 23:24 4,6 C 2,8 C 84 % 1025,5 hPa 0,0 l/m 0 min 0 min 0,0 UV-I 0 W/m 10,3 km/h (2 Bft)
15.12.2013 23:26 4,6 C 2,8 C 84 % 1025,4 hPa 0,0 l/m 0 min 0 min 0,0 UV-I 0 W/m 10,3 km/h (2 Bft)
15.12.2013 23:28 4,6 C 2,8 C 84 % 1025,4 hPa 0,0 l/m 0 min 0 min 0,0 UV-I 0 W/m 12,9 km/h (3 Bft)
15.12.2013 23:30 4,6 C 2,8 C 84 % 1025,3 hPa 0,0 l/m 0 min 0 min 0,0 UV-I 0 W/m 12,9 km/h (3 Bft)
15.12.2013 23:32 4,6 C 2,8 C 84 % 1025,3 hPa 0,0 l/m 0 min 0 min 0,0 UV-I 0 W/m 18,0 km/h (3 Bft)
15.12.2013 23:34 4,6 C 2,8 C 84 % 1025,2 hPa 0,0 l/m 0 min 0 min 0,0 UV-I 0 W/m 15,4 km/h (3 Bft)
15.12.2013 23:36 4,6 C 2,8 C 84 % 1025,2 hPa 0,0 l/m 0 min 0 min 0,0 UV-I 0 W/m 12,9 km/h (3 Bft)
15.12.2013 23:38 4,6 C 2,8 C 84 % 1025,2 hPa 0,0 l/m 0 min 0 min 0,0 UV-I 0 W/m 12,9 km/h (3 Bft)
15.12.2013 23:40 4,6 C 2,8 C 84 % 1025,2 hPa 0,0 l/m 0 min 0 min 0,0 UV-I 0 W/m 15,4 km/h (3 Bft)
15.12.2013 23:42 4,6 C 3,3 C 84 % 1025,2 hPa 0,0 l/m 0 min 0 min 0,0 UV-I 0 W/m 15,4 km/h (3 Bft)
15.12.2013 23:44 4,6 C 3,3 C 84 % 1025,2 hPa 0,0 l/m 0 min 0 min 0,0 UV-I 0 W/m 12,9 km/h (3 Bft)
15.12.2013 23:46 4,6 C 2,8 C 84 % 1025,3 hPa 0,0 l/m 0 min 0 min 0,0 UV-I 0 W/m 18,0 km/h (3 Bft)
15.12.2013 23:48 4,6 C 2,8 C 84 % 1025,3 hPa 0,0 l/m 0 min 0 min 0,0 UV-I 0 W/m 12,9 km/h (3 Bft)
15.12.2013 23:50 4,6 C 2,8 C 84 % 1025,3 hPa 0,0 l/m 0 min 0 min 0,0 UV-I 0 W/m 10,3 km/h (2 Bft)
15.12.2013 23:52 4,6 C 2,8 C 84 % 1025,3 hPa 0,0 l/m 0 min 0 min 0,0 UV-I 0 W/m 7,7 km/h (2 Bft)
15.12.2013 23:54 4,6 C 2,8 C 84 % 1025,3 hPa 0,0 l/m 0 min 0 min 0,0 UV-I 0 W/m 10,3 km/h (2 Bft)
15.12.2013 23:56 4,6 C 2,8 C 84 % 1025,3 hPa 0,0 l/m 0 min 0 min 0,0 UV-I 0 W/m 2,6 km/h (1 Bft)
15.12.2013 23:58 4,6 C 2,8 C 83 % 1025,2 hPa 0,0 l/m 0 min 0 min 0,0 UV-I 0 W/m 7,7 km/h (2 Bft)
_ Min-Zeit 00:00 00:00 07:30 06:00 - - - - - 01:12
Minimum _ 3,5 C 2,2 C 78 % 1024,7 hPa - - - - - 0,0 km/h (0 Bft)
_ Max-Zeit 18:04 12:52 00:14 11:00 05:05 00:00 06:20 00:00 13:58 08:02
Maximum _ 8,6 C 7,2 C 93 % 1028,1 hPa 0,2 l/m 0 min 2 min 0,0 UV-I 113 W/m 38,6 km/h
SW (5 Bft)
Durchschnitt _ 6,7 C 5,1 C 86 % 1026,2 hPa #0,2 l/m #0 min. #24 min. 0,0 UV-I 51 W/m 12,8 km/h (3 Bft)
© 2013 W. Hausmann